Bleach Manga

Bleach Manga
Rating: 8.9 of 14756656 person votes
Rank 7 /20,1487
Alternative: Блич;ブリーチ;死神;เทพมรณะ;블리치;Bleach - Dewa Maut (Malaysia);بلیچ - (Persian);Bleach - Sứ mạng thần chết;بليتش - (Arabic);Wybielacz (Polish);
Artists: Kubo Tite
Author(s): Kubo Tite
Genres: DramaShounenSupernaturalComedyActionAdventureFantasyhorrorMartial arts
Release: 2015
Status: Ongoing
Summary:

Ichigo Kurosaki has always been able to see ghosts, but this ability doesn't change his life nearly as much as his close encounter with Rukia Kuchiki, a Soul Reaper and member of the mysterious Soul Society. While fighting a Hollow, an evil spirit that preys on humans who display psychic energy, Rukia attempts to lend Ichigo some of her powers so that he can save his family; but much to her surprise, Ichigo absorbs every last drop of her energy.

Now a full-fledged Soul Reaper himself, Ichigo quickly learns that the world he inhabits is one full of dangerous spirits, and along with Rukia--who is slowly regaining her powers--it's Ichigo's job to protect the innocent from Hollows and help the spirits themselves find peace.

In 2005, Bleach was awarded the Shogakukan Manga Award in the Shounen category.

vol.TBD ch.685 26 Pages 2016-08-20 15:33:00
vol.TBD ch.684 21 Pages 2016-07-28 09:42:00
vol.TBD ch.683 : The Dark Side of Two World Ends 24 Pages 2016-07-22 09:10:00
vol.TBD ch.682 : The Two Sided World End 20 Pages 2016-07-13 16:22:00
vol.TBD ch.681 : The End Two World 19 Pages 2016-07-08 03:29:00
vol.TBD ch.680 : THE END-2 20 Pages 2016-07-09 22:03:00
vol.TBD ch.679 : THE END 21 Pages 2016-06-24 18:31:00
vol.TBD ch.678 : The Future Black 23 Pages 2016-06-16 16:31:00
vol.TBD ch.677 23 Pages 2016-06-17 23:12:00
vol.TBD ch.676 20 Pages 2016-06-11 01:32:00
vol.TBD ch.675 : Blood for My Bone 19 Pages 2016-06-05 12:18:00
vol.TBD ch.656 : God of Thunder 23 Pages 2015-12-26 17:16:00
vol.73 ch.674 : Father 2 15 Pages 2016-07-23 05:31:00
vol.73 ch.673 : Father 18 Pages 2016-07-23 05:29:00
vol.73 ch.672 : Son of Darkness 19 Pages 2016-07-23 05:27:00
vol.73 ch.671 : The Perfect Crimson 2 23 Pages 2016-07-23 05:25:00
vol.73 ch.670 : The Perfect Crimson 22 Pages 2016-07-23 05:15:00
vol.73 ch.669 : Yaiba II 17 Pages 2016-07-23 05:13:00
vol.73 ch.668 : Bigger, Faster, Stronger 19 Pages 2016-07-23 05:11:00
vol.73 ch.667 : Bigger, Louder, Stronger 19 Pages 2016-07-23 05:09:00
vol.73 ch.666 : Empty Hall of the Puppet Temple 19 Pages 2016-07-23 05:08:00
vol.73 ch.665 : The Princess Dissection 17 Pages 2016-07-23 05:05:00
vol.73 ch.664.5 : Announcement 1 Pages 2016-07-23 05:03:00
vol.73 ch.664 : The Gift 18 Pages 2016-07-23 05:03:00
vol.72 ch.663 : God of Thunder 4 24 Pages 2016-07-28 09:40:00
vol.72 ch.662 : God of Thunder 3 23 Pages 2016-07-28 09:39:00
vol.72 ch.661 : My Last Words 21 Pages 2016-07-28 09:39:00
vol.72 ch.660 : The Visible Answer 18 Pages 2016-07-28 09:39:00
vol.72 ch.659 : There Will Be Frost 23 Pages 2016-07-28 09:39:00
vol.72 ch.658 : Fatal Matters Are Cold 20 Pages 2016-07-28 09:39:00
vol.72 ch.657 : God of Thunder 2 19 Pages 2016-07-28 09:39:00
vol.72 ch.656 : God of Thunder 22 Pages 2016-07-28 09:38:00
vol.72 ch.655 : The Miracle 20 Pages 2016-07-28 09:38:00
vol.72 ch.654 : Deadman Standing 18 Pages 2016-07-23 05:02:00
vol.72 ch.653 : The Theatre Suicide - Scene 7 16 Pages 2016-07-23 05:00:00
vol.71 ch.652 : The Theatre Suicide Scene 6 18 Pages 2016-07-23 04:58:00
vol.71 ch.651 : The Theatre Suicide Scene 5 17 Pages 2016-07-23 04:56:00
vol.71 ch.650 : The Theatre Suicide Scene 4 18 Pages 2016-07-23 04:54:00
vol.71 ch.649 : The Theater Suicide Scene 3 20 Pages 2016-07-23 04:52:00
vol.71 ch.648 : The Theatre Suicide Scene 2 17 Pages 2016-07-23 04:50:00
vol.71 ch.647 : The Theatre Suicide 17 Pages 2016-07-23 04:49:00
vol.71 ch.646 : The Second Eye 18 Pages 2016-07-23 04:47:00
vol.71 ch.645 : Don't Chase a Shadow 18 Pages 2016-07-23 04:46:00
vol.71 ch.644 : Baby, Hold Your Hand 7 - Never Ending My Dream 18 Pages 2016-07-23 04:45:00
vol.71 ch.643 : Baby, Hold Your Hand 6 18 Pages 2016-07-23 04:43:00
vol.70 ch.642 : Baby, Hold Your Hand 5 21 Pages 2015-11-12 04:57:00
vol.70 ch.641 : Baby, Hold Your Hand 4 - When I am sleeping 18 Pages 2015-11-12 04:56:00
vol.70 ch.640 : Baby, Hold Your Hand 3 (Mad Lullaby no.7) 24 Pages 2015-11-12 04:56:00
vol.70 ch.639 : Baby, Hold Your Hand 2 21 Pages 2015-11-12 04:55:00
vol.70 ch.638 : Seething Malice Is The Height Of Comedy 21 Pages 2015-11-12 04:54:00
vol.70 ch.637 : Baby, Hold Your Hand 23 Pages 2015-11-12 04:54:00
vol.70 ch.636 : Sensitive Monster 23 Pages 2015-11-12 04:53:00
vol.70 ch.635 : Hooded Enigma 23 Pages 2015-11-12 04:52:00
vol.70 ch.634 : Friend 4 22 Pages 2015-11-12 04:52:00
vol.70 ch.633 : Friend 3 23 Pages 2015-11-12 04:51:00
vol.69 ch.632 : Friend 2 23 Pages 2015-08-06 05:50:00
vol.69 ch.631 : Friend 23 Pages 2015-08-06 05:49:00
vol.69 ch.630 : The Twined Twilight 22 Pages 2015-08-06 05:49:00
vol.69 ch.629 : Gate of The Sun 23 Pages 2015-08-06 05:48:00
vol.69 ch.628 : New World Orders 22 Pages 2015-08-06 05:47:00
vol.69 ch.627 : The Creation 21 Pages 2015-08-06 05:47:00
vol.69 ch.626 : The Holy Newborn 22 Pages 2015-08-06 05:46:00
vol.69 ch.625 : Living Jaguar 24 Pages 2015-08-06 05:46:00
vol.69 ch.624 : The Fang 22 Pages 2015-08-06 05:45:00
vol.69 ch.623 : Against the Judgement 23 Pages 2015-08-06 05:44:00
vol.68 ch.622 : The Agony 22 Pages 2015-07-09 10:55:00
vol.68 ch.621 : The Dark Curtain 23 Pages 2015-07-02 07:44:00
vol.68 ch.620 : Where Do You Stand 23 Pages 2015-07-02 07:43:00
vol.68 ch.619 : The Betrayer 23 Pages 2015-07-02 07:43:00
vol.68 ch.618 : The Dark Arm 23 Pages 2015-07-02 07:42:00
vol.68 ch.617 : Return of the God 25 Pages 2015-07-02 07:41:00
vol.68 ch.616 : Mimihagi-Sama 22 Pages 2015-07-02 07:41:00
vol.68 ch.615 : All is Lost 22 Pages 2015-07-02 07:40:00
vol.68 ch.614 : Kill The King 22 Pages 2015-07-02 07:39:00
vol.68 ch.613 : The Ordinary Peace 20 Pages 2015-07-02 07:39:00
vol.68 ch.612 : Dirty 20 Pages 2015-07-02 07:38:00
vol.67 ch.611 : Death of the Soul King 21 Pages 2015-04-09 11:26:00
vol.67 ch.610 : Mausoleum of Skulls 20 Pages 2015-04-09 11:26:00
vol.67 ch.609 : ''A'' 20 Pages 2015-04-09 11:25:00
vol.67 ch.608 : Darkness from the Blackest of Black 19 Pages 2015-04-09 11:25:00
vol.67 ch.607 : The Master 23 Pages 2015-04-09 11:24:00
vol.67 ch.606 : Divine Division 22 Pages 2015-04-09 11:23:00
vol.67 ch.605 : Don't Call My Name 22 Pages 2015-04-09 11:23:00
vol.67 ch.604 : Revitalize 23 Pages 2015-04-09 11:22:00
vol.67 ch.603 : What The Hell 23 Pages 2015-04-09 11:22:00
vol.67 ch.602 : Bane Licking Good 23 Pages 2015-04-09 11:21:00
vol.66 ch.601 : Verge On Vermillion 23 Pages 2015-01-22 10:54:00
vol.66 ch.600 : Snipe 22 Pages 2015-01-22 10:54:00
vol.66 ch.599 : Too Early to Win Too Late to Know 20 Pages 2015-01-22 10:53:00
vol.66 ch.598 : The Shooting Star Project [We Only Have To Beat You Mix] 21 Pages 2015-01-22 10:53:00
vol.66 ch.597 : Winded by the Shadow 19 Pages 2015-01-22 10:53:00
vol.66 ch.596 : Rubb-Dolls 3 20 Pages 2015-01-22 10:53:00
vol.66 ch.595 : Rubb-Dolls 2 22 Pages 2015-01-22 10:52:00
vol.66 ch.594 : Rubb-Dolls 21 Pages 2015-01-22 10:52:00
vol.66 ch.593 : Marching Out The ZOMBIES 4 22 Pages 2015-01-22 10:52:00
vol.66 ch.592 : Marching Out The ZOMBIES 3 21 Pages 2015-01-22 10:51:00
vol.65 ch.591 : Marching Out the ZOMBIES 2 26 Pages 2015-01-22 10:51:00
vol.65 ch.590 : Marching Out the ZOMBIES 21 Pages 2015-01-22 10:51:00
vol.65 ch.589 : “The Shooting Star Project” [The Old and New Trust] 22 Pages 2015-01-22 10:50:00
vol.65 ch.588 : The Headless Star 7 22 Pages 2015-01-22 10:50:00
vol.65 ch.587 : The Headless Star 6 23 Pages 2015-01-22 10:50:00
vol.65 ch.586 : The Headless Star 5 21 Pages 2015-01-22 10:49:00
vol.65 ch.585 : The Headless Star 4 21 Pages 2015-01-22 10:49:00
vol.65 ch.584 : The Headless Star 3 22 Pages 2015-01-22 10:49:00
vol.65 ch.583 : The Headless Star 2 22 Pages 2015-01-22 10:48:00
vol.65 ch.582 : The Headless Star 22 Pages 2015-01-22 10:48:00
vol.65 ch.581 : The Hero 2 24 Pages 2015-01-22 10:48:00
vol.64 ch.580 : The Light 20 Pages 2015-01-22 10:48:00
vol.64 ch.579 : THE UNDEAD 6 20 Pages 2015-01-22 10:47:00
vol.64 ch.578 : THE UNDEAD 5 22 Pages 2015-01-22 10:47:00
vol.64 ch.577 : Blade 21 Pages 2015-01-22 10:47:00
vol.64 ch.576 : THE KILLERS HIGH 2 23 Pages 2015-01-22 10:47:00
vol.64 ch.575 : THE KILLERS HIGH 23 Pages 2015-01-22 10:46:00
vol.64 ch.574 : DEATH IN VISION 23 Pages 2015-01-22 10:46:00
vol.64 ch.573 : I AM THE EDGE 24 Pages 2015-01-22 10:46:00
vol.64 ch.572 : The Blaster 23 Pages 2015-01-22 10:45:00
vol.64 ch.571 : a Devilish Perspective 22 Pages 2015-01-22 10:45:00
vol.63 ch.570 : Closer, Closer 22 Pages 2014-05-19 05:41:00
vol.63 ch.569 : The White Haze 21 Pages 2014-05-19 05:41:00
vol.63 ch.568 : Hear. Fear. Here 2 21 Pages 2014-05-19 05:41:00
vol.63 ch.567 : Dance With Snowwhite 22 Pages 2014-05-19 05:41:00
vol.63 ch.566 : What is Your Fear? 22 Pages 2014-05-19 05:40:00
vol.63 ch.565 : God Like You 22 Pages 2014-05-19 05:40:00
vol.63 ch.564 : Red Bristled Kings 23 Pages 2014-05-19 05:40:00
vol.63 ch.563 : Superstar Never Die 20 Pages 2014-05-19 05:40:00
vol.63 ch.562 : The Villain 2 22 Pages 2014-05-19 05:39:00
vol.63 ch.561 : The Villain 23 Pages 2014-05-19 05:39:00
vol.62 ch.560 : Rages at Ringside 22 Pages 2014-04-23 07:20:00
vol.62 ch.559 : The Night Right 22 Pages 2014-04-23 07:20:00
vol.62 ch.558 : The Wolf's Heart 25 Pages 2014-04-23 07:20:00
vol.62 ch.557 : His Life Has Already Been Set Aside 20 Pages 2014-04-23 07:20:00
vol.62 ch.556 : The Wolfsbane 23 Pages 2014-04-23 07:19:00
vol.62 ch.555 : The Hero 21 Pages 2014-04-23 07:19:00
vol.62 ch.554 : Desperate Lights 22 Pages 2014-04-23 07:19:00
vol.62 ch.553 : Frozen Cross 22 Pages 2014-04-23 07:18:00
vol.62 ch.552 : The Fundemental Virulence 22 Pages 2014-04-23 07:18:00
vol.62 ch.551 : The Burnt Offerings 22 Pages 2014-04-23 07:18:00
vol.61 ch.550 : Blazing Bullets 22 Pages 2013-09-26 00:00:00
vol.61 ch.549 : The StormBringer 22 Pages 2013-09-17 00:00:00
vol.61 ch.548 : The Thin Ice 22 Pages 2013-09-11 00:00:00
vol.61 ch.547 : Peace From Shadows 25 Pages 2013-09-04 00:00:00
vol.61 ch.546 : The Last 9 Days 22 Pages 2013-07-17 00:00:00
vol.61 ch.545 : Blue Stripes 21 Pages 2013-07-09 00:00:00
vol.61 ch.544 : Walking With Watcher 21 Pages 2013-07-03 00:00:00
vol.61 ch.543 : Letters 21 Pages 2013-06-26 00:00:00
vol.61 ch.542 : The Blade Is Me 20 Pages 2013-06-19 00:00:00
vol.61 ch.541 : The Blade And Me 2 22 Pages 2013-06-12 00:00:00
vol.60 ch.547 23 Pages 2013-09-04 09:12:00
vol.60 ch.540 : The Sword Five 21 Pages 2013-06-05 00:00:00
vol.60 ch.539 : Prob-less, Progress 21 Pages 2013-05-29 00:00:00
vol.60 ch.538 : Standing On the Edge 21 Pages 2013-05-23 00:00:00
vol.60 ch.537 : Everything But the Rain 10 21 Pages 2013-05-15 00:00:00
vol.60 ch.536 : Everything But the Rain OP.9 21 Pages 2013-05-09 00:00:00
vol.60 ch.535 : Everything But the Rain OP.8 23 Pages 2013-04-23 00:00:00
vol.60 ch.534 : Everything but the Rain op.7 23 Pages 2013-04-17 00:00:00
vol.60 ch.533 : Everything But the Rain OP.6 22 Pages 2013-04-10 00:00:00
vol.60 ch.532 : Everything But the Rain OP 5 20 Pages 2013-04-03 00:00:00
vol.60 ch.531 : Everything But the Rain OP.4 22 Pages 2013-03-27 00:00:00
vol.59 ch.530 : Everything But the Rain OP.3 21 Pages 2013-03-13 00:00:00
vol.59 ch.529 : Everything But the Rain OP.2 22 Pages 2013-03-07 00:00:00
vol.59 ch.528 : Everything But the Rain 23 Pages 2013-02-27 00:00:00
vol.59 ch.527 : Eliminate From Heaven 25 Pages 2013-02-20 00:00:00
vol.59 ch.526 : The Battle 23 Pages 2013-02-13 00:00:00
vol.59 ch.525 : Edges 24 Pages 2013-01-31 00:00:00
vol.59 ch.524 : The Drop 24 Pages 2013-01-23 00:00:00
vol.59 ch.523 : Words of Origin 25 Pages 2013-01-17 00:00:00
vol.59 ch.522 : Love It 25 Pages 2012-12-28 00:00:00
vol.59 ch.521 : A Piggy Party 26 Pages 2012-12-19 00:00:00
vol.58 ch.520 : Killers Not Dead 24 Pages 2012-12-13 00:00:00
vol.58 ch.519 : Hot Hot Heat 24 Pages 2012-12-06 00:00:00
vol.58 ch.518 : The Shooting Star Project 24 Pages 2012-11-29 00:00:00
vol.58 ch.517 : The Stairway to Heaven 27 Pages 2012-11-21 00:00:00
vol.58 ch.516 : The Squad Zero 22 Pages 2012-11-15 00:00:00
vol.58 ch.515 : Relics 24 Pages 2012-11-07 00:00:00
vol.58 ch.514 : Born in the Dark 24 Pages 2012-10-31 00:00:00
vol.58 ch.513 : The Dark Moon Stroke 23 Pages 2012-10-24 00:00:00
vol.58 ch.512 : Everything but the Rain 23 Pages 2012-10-17 00:00:00
vol.58 ch.511 : Death Whilst Standing 26 Pages 2012-10-10 00:00:00
vol.58 ch.510 : The Extinction 22 Pages 2012-10-02 00:00:00
vol.57 ch.509 : Tenchi Kaijin 21 Pages 2012-09-26 00:00:00
vol.57 ch.508 : Like a Raging Fire 21 Pages 2012-09-19 00:00:00
vol.57 ch.507 : The Fire 3 24 Pages 2012-09-12 00:00:00
vol.57 ch.506 : The Fire 2 21 Pages 2012-09-05 00:00:00
vol.57 ch.505 : The Fire 27 Pages 2012-08-29 00:00:00
vol.57 ch.504 : A Long Time Ago 23 Pages 2012-08-22 00:00:00
vol.57 ch.503 : Wrath As A Lightning 24 Pages 2012-08-15 00:00:00
vol.57 ch.502 : Scattering Souls 23 Pages 2012-07-26 00:00:00
vol.57 ch.501 : Hear. Fear. Here 24 Pages 2012-07-18 00:00:00
vol.57 ch.500 : Rescuer in the Deep Dark 23 Pages 2012-07-10 00:00:00
vol.56 ch.499 : Rescuer in the Dark 22 Pages 2012-07-04 00:00:00
vol.56 ch.498 : The Black Rescuer 22 Pages 2012-06-27 00:00:00
vol.56 ch.497 : Kill The Shadow 2 21 Pages 2012-06-20 00:00:00
vol.56 ch.496 : Kill The Shadow 18 Pages 2012-06-13 00:00:00
vol.56 ch.495 : Bleeding Guitar Blues 22 Pages 2012-06-06 00:00:00
vol.56 ch.494 : The Closing Chapter Part One 23 Pages 2012-05-30 00:00:00
vol.56 ch.493 : Light of Happiness 19 Pages 2012-05-23 00:00:00
vol.56 ch.492 : Balancer's Justice 22 Pages 2012-05-16 00:00:00
vol.56 ch.491 : Todes Engel 20 Pages 2012-05-10 00:00:00
vol.56 ch.490 : March Of The StarCross 2 17 Pages 2012-04-28 00:00:00
vol.55 ch.488 : Bond Behind Blast 18 Pages 2012-04-11 00:00:00
vol.55 ch.487 : Breathe but blind 20 Pages 2012-04-04 00:00:00
vol.55 ch.486 : The Crimson Cremation 17 Pages 2012-03-28 00:00:00
vol.55 ch.485 : Foundation Stones 18 Pages 2012-03-21 00:00:00
vol.55 ch.484 : The Buckbeard 17 Pages 2012-03-07 00:00:00
vol.55 ch.483 : KriegsErklärung 21 Pages 2012-02-29 00:00:00
vol.55 ch.482 : Bad Recognition 18 Pages 2012-02-22 00:00:00
vol.55 ch.480 : Final Arc - The Thousand Year Blood War 26 Pages 2012-02-08 00:00:00
vol.54 ch.479 : Goodbye to our Xcution 23 Pages 2012-01-11 00:00:00
vol.54 ch.478 : The Lost 3 23 Pages 2011-12-26 00:00:00
vol.54 ch.477 : The Lost 2 23 Pages 2011-12-14 00:00:00
vol.54 ch.476 : The Lost 23 Pages 2011-12-07 00:00:00
vol.54 ch.475 : Shades of the Bond 18 Pages 2011-11-30 00:00:00
vol.54 ch.474 : beLIEve 23 Pages 2011-11-22 00:00:00
vol.54 ch.473 : Enemies in the Dark 23 Pages 2011-11-16 00:00:00
vol.54 ch.472 : Razoredge Requiem 22 Pages 2011-11-09 00:00:00
vol.54 ch.471 : Pray for Predators 2 22 Pages 2011-11-02 00:00:00
vol.54 ch.470 : Pray for Predators 20 Pages 2011-10-27 00:00:00
vol.53 ch.469 : Rag Lag Rumble 24 Pages 2011-10-19 00:00:00
vol.53 ch.468 : Raid as a Blade 20 Pages 2011-10-12 00:00:00
vol.53 ch.467 : Luck Men 23 Pages 2011-10-05 00:00:00
vol.53 ch.466 : Screaming Invader 20 Pages 2011-09-28 00:00:00
vol.53 ch.465 : Bad Blood Exhaust 24 Pages 2011-09-21 00:00:00
vol.53 ch.464 : Quiet Chamber, Noisy Heart 20 Pages 2011-09-14 00:00:00
vol.53 ch.463 : Extreme Divider 23 Pages 2011-09-08 00:00:00
vol.53 ch.462 : Why Am I Sad 23 Pages 2011-08-31 00:00:00
vol.53 ch.461 : Come Around Our Turn 23 Pages 2011-08-25 00:00:00
vol.53 ch.460 : DeathBerry Returns 2 20 Pages 2011-08-29 00:00:00
vol.52 ch.459 : Death & Strawberry 2 23 Pages 2011-08-03 00:00:00
vol.52 ch.458 : End of All Bonds 23 Pages 2011-07-27 00:00:00
vol.52 ch.457 : End of the Bond 3 24 Pages 2011-07-20 00:00:00
vol.52 ch.456 : End of the Bond 2 22 Pages 2011-07-12 00:00:00
vol.52 ch.455 : End of the Bond 1 23 Pages 2011-07-06 00:00:00
vol.52 ch.454 : Sheathebreaker 24 Pages 2011-06-29 00:00:00
vol.52 ch.453 : Mute Your Breathe Friendship 23 Pages 2011-06-22 00:00:00
vol.52 ch.452 : Erosion/Implosion 23 Pages 2016-06-17 14:37:00
vol.52 ch.451 : Welcome to Our EXECUTION 4 22 Pages 2016-06-17 14:32:00
vol.51 ch.450 : Blind Solitude 23 Pages 2011-06-02 00:00:00
vol.51 ch.449 : Not Be a Drug 22 Pages 2011-05-26 00:00:00
vol.51 ch.448 : Loading to Lie 23 Pages 2011-05-19 00:00:00
vol.51 ch.447 : Load 23 Pages 2011-05-17 00:00:00
vol.51 ch.446 : The Dark Beat 2 20 Pages 2011-05-01 00:00:00
vol.51 ch.445 : The Dark Beat 20 Pages 2011-04-20 00:00:00
vol.51 ch.444 : The Rising 21 Pages 2011-04-13 00:00:00
vol.51 ch.443 : Dirty Boots Dangers 20 Pages 2011-04-06 00:00:00
vol.51 ch.442 : Battlefield Shallows, Otherfield Abyss 22 Pages 2011-03-30 00:00:00
vol.50 ch.441 : Spotlight Broken 22 Pages 2011-03-17 00:00:00
vol.50 ch.440 : Mute Friendship 20 Pages 2011-03-10 00:00:00
vol.50 ch.439 : Keen Marker 22 Pages 2011-03-03 00:00:00
vol.50 ch.438 : Knuckle Down 22 Pages 2011-03-04 00:00:00
vol.50 ch.437 : Swastika Break 22 Pages 2011-02-21 00:00:00
vol.50 ch.436 : The Time Discipline 24 Pages 2011-02-15 00:00:00
vol.50 ch.435 : Panic in the Dollhouse 22 Pages 2011-02-08 00:00:00
vol.50 ch.434 : Berry in the Box 21 Pages 2011-02-01 00:00:00
vol.50 ch.433 : The Six Fullbringers 20 Pages 2011-01-15 00:00:00
vol.49 ch.432 : The Soul Pantheism 20 Pages 2011-01-01 00:00:00
vol.49 ch.431 : Welcome to Our Execution 3 19 Pages 2010-12-18 00:00:00
vol.49 ch.430 : Welcome to Our Execution 2 20 Pages 2010-12-11 00:00:00
vol.49 ch.429 : Welcome to Our Execution 18 Pages 2010-12-04 00:00:00
vol.49 ch.428.1 : BLEACH the Motion Picture: Hell Arc 21 Pages 2010-11-29 00:00:00
vol.49 ch.428 : The Known 22 Pages 2010-11-26 00:00:00
vol.49 ch.427 : A Delicious Dissonance 20 Pages 2010-11-19 00:00:00
vol.49 ch.426 : The Starter 2 20 Pages 2010-11-13 00:00:00
vol.49 ch.425 : A Day Without Melodies 20 Pages 2010-11-05 00:00:00
vol.48 ch.424 : The Lost Agent 23 Pages 2010-10-29 00:00:00
vol.48 ch.423 : Farewell Swords 19 Pages 2010-10-15 00:00:00
vol.48 ch.422 : The Silent Victory 20 Pages 2010-10-02 00:00:00
vol.48 ch.421 : Deicide 23 22 Pages 2010-09-24 00:00:00
vol.48 ch.420 : Deicide 22 18 Pages 2010-09-17 00:00:00
vol.48 ch.419 : Deicide 21 [Trancendent God Rock] 19 Pages 2010-09-17 00:00:00
vol.48 ch.418 : Deicide 20 19 Pages 2010-09-17 00:00:00
vol.48 ch.417 : Deicide 19 18 Pages 2010-09-17 00:00:00
vol.48 ch.416 : Deicide 18 [The End] 18 Pages 2010-09-17 00:00:00
vol.48 ch.415 : Deicide 17 19 Pages 2010-09-17 00:00:00
vol.48 ch.414 : Deicide 16 21 Pages 2010-07-31 00:00:00
vol.47 ch.413 : Deicide 15 20 Pages 2010-07-23 00:00:00
vol.47 ch.412 : Deicide 14 20 Pages 2010-07-16 00:00:00
vol.47 ch.411 : Deicide 13 21 Pages 2010-07-09 00:00:00
vol.47 ch.410 : Deicide 12 20 Pages 2010-07-02 00:00:00
vol.47 ch.409 : Deicide 11 22 Pages 2010-06-25 00:00:00
vol.47 ch.408 : Deicide 10 20 Pages 2010-07-04 00:00:00
vol.47 ch.407 : Deicide 9 20 Pages 2010-06-11 00:00:00
vol.47 ch.406 : Deicide 8 [End of The Chrysalis Age] 20 Pages 2010-06-04 00:00:00
vol.47 ch.405 : Deicide 7 20 Pages 2010-05-28 00:00:00
vol.46 ch.404 : Deicide 6 20 Pages 2010-05-21 00:00:00
vol.46 ch.403 : Deicide 5 19 Pages 2010-05-14 00:00:00
vol.46 ch.402 : Deicide 4 20 Pages 2010-05-04 00:00:00
vol.46 ch.401 : Deicide 3 19 Pages 2010-04-23 00:00:00
vol.46 ch.400 : Deicide 2 20 Pages 2010-04-15 00:00:00
vol.46 ch.399 : Deicide 20 Pages 2010-04-09 00:00:00
vol.46 ch.398 : The Father and Son Bond 19 Pages 2010-04-02 00:00:00
vol.44 ch.397 : Edge of the Silence 19 Pages 2010-03-25 00:00:00
vol.44 ch.396 : The Bite 20 Pages 2010-03-19 00:00:00
vol.44 ch.395 : The Burnout Inferno 3 19 Pages 2010-03-12 00:00:00
vol.44 ch.394 : The Burnout Inferno 2 19 Pages 2010-03-05 00:00:00
vol.44 ch.393 : The Burnout Inferno 19 Pages 2010-02-26 00:00:00
vol.44 ch.392 : The Breaking Glaciers 22 Pages 2010-02-10 00:00:00
vol.44 ch.391 : The Blazing Glaciers 20 Pages 2010-02-04 00:00:00
vol.44 ch.390 : Beyond the Death Understanding 19 Pages 2010-01-29 00:00:00
vol.44 ch.389 : Winged Eagles 2 20 Pages 2010-01-21 00:00:00
vol.44 ch.388 : Eagle Without Wings 2 18 Pages 2010-01-14 00:00:00
vol.44 ch.387 : Ignited 21 Pages 2009-12-25 00:00:00
vol.44 ch.386 : The Bestial 22 Pages 2009-12-17 00:00:00
vol.44 ch.385 : Vice It 20 Pages 2009-12-11 00:00:00
vol.44 ch.384 : Can't Fear Your Own Sword! 20 Pages 2009-12-03 00:00:00
vol.44 ch.383 : Too Early To Trust 19 Pages 2009-11-27 00:00:00
vol.44 ch.382 : The United Front *Discordeque Mix* 19 Pages 2009-11-12 00:00:00
vol.44 ch.381 : Words Just Don't Like You 20 Pages 2009-11-05 00:00:00
vol.44 ch.380 : Devil, Devil, Devil, Devil 20 Pages 2009-10-29 00:00:00
vol.44 ch.379 : Falta de Armonia 22 Pages 2009-10-22 00:00:00
vol.44 ch.378 : Eyes of the Victor 19 Pages 2009-10-15 00:00:00
vol.43 ch.377 : Shout at the Dark 18 Pages 2009-10-08 00:00:00
vol.43 ch.376 : Execution, Extinction 2 19 Pages 2009-10-02 00:00:00
vol.43 ch.375 : Execution, Extinction 22 Pages 2009-09-25 00:00:00
vol.43 ch.374 : Grey Wolves, Red Blood, Black Clothes, White Bones 20 Pages 2009-09-17 00:00:00
vol.43 ch.373 : Wolves Ain't Howl Alone 18 Pages 2009-09-11 00:00:00
vol.43 ch.372 : The Metal Cudgel Flinger 18 Pages 2009-09-04 00:00:00
vol.43 ch.371 : Kingdom of Hollows 19 Pages 2009-08-28 00:00:00
vol.43 ch.370 : Debating Life from God's Viewpoint 20 Pages 2009-08-21 00:00:00
vol.43 ch.369 : Spit on Your Own God 20 Pages 2009-08-07 00:00:00
vol.43 ch.368 : The Fearless Child 20 Pages 2009-07-31 00:00:00
vol.42 ch.367 : Your Enemy Is My Enemy 20 Pages 2009-07-24 00:00:00
vol.42 ch.366 : The Revenger's High 18 Pages 2009-07-16 00:00:00
vol.42 ch.365 : Whose Side Are We On 18 Pages 2009-07-10 00:00:00
vol.42 ch.364 : Grinning Revengers 19 Pages 2009-07-03 00:00:00
vol.42 ch.363 : Superchunky from Hell 20 Pages 2009-06-26 00:00:00
vol.42 ch.362 : Howling Wolves 19 Pages 2009-06-19 00:00:00
vol.42 ch.361 : I Hate Loneliness, but It Loves Me 19 Pages 2009-06-12 00:00:00
vol.42 ch.360 : Shock of the Queen 19 Pages 2009-06-05 00:00:00
vol.42 ch.359 : The Frozen Obelisk 19 Pages 2009-05-29 00:00:00
vol.41 ch.358 : King of the Clouds 19 Pages 2009-05-22 00:00:00
vol.41 ch.357 : The Colossus of Fear 19 Pages 2009-05-15 00:00:00
vol.41 ch.356 : Tyrant of Skulls 20 Pages 2009-05-08 00:00:00
vol.41 ch.355 : Azul-Blood Splash 19 Pages 2009-04-24 00:00:00
vol.41 ch.354 : The Heart 19 Pages 2009-04-17 00:00:00
vol.41 ch.353 : The Ash 22 Pages 2009-04-10 00:00:00
vol.41 ch.352 : The Lust 6 20 Pages 2009-04-03 00:00:00
vol.41 ch.351 : The Lust 5 19 Pages 2009-03-27 00:00:00
vol.41 ch.350 : The Lust 4 17 Pages 2009-03-19 00:00:00
vol.40 ch.349 : The Lust 3 19 Pages 2009-03-13 00:00:00
vol.40 ch.348 : The Lust 2 21 Pages 2009-03-06 00:00:00
vol.40 ch.347 : The Lust 19 Pages 2009-02-27 00:00:00
vol.40 ch.346 : The Wrath 19 Pages 2009-02-20 00:00:00
vol.40 ch.345 : The Sloth 20 Pages 2009-02-13 00:00:00
vol.40 ch.344 : The Pride 20 Pages 2009-02-06 00:00:00
vol.40 ch.343 : The Gluttony 18 Pages 2009-01-30 00:00:00
vol.40 ch.342 : The Greed 19 Pages 2009-01-23 00:00:00
vol.40 ch.341 : The Envy 20 Pages 2009-01-16 00:00:00
vol.39 ch.340 : The Antagonizer 19 Pages 2008-12-30 00:00:00
vol.39 ch.339 : The Deathbringer Numbers 20 Pages 2008-12-18 00:00:00
vol.39 ch.338 : Fall into My Inferno 18 Pages 2008-12-12 00:00:00
vol.39 ch.337 : Hall in Your Inferno 20 Pages 2008-12-05 00:00:00
vol.39 ch.336 : El Verdugo 20 Pages 2008-11-28 00:00:00
vol.39 ch.335 : Chimera Chord 21 Pages 2008-11-20 00:00:00
vol.39 ch.334 : Dregs of Hypnosis 20 Pages 2008-11-14 00:00:00
vol.39 ch.333 : Ash and Salamander 20 Pages 2008-11-07 00:00:00
vol.39 ch.332 : Fang and Sting 20 Pages 2008-10-31 00:00:00
vol.38 ch.331 : Don't Believe the Hide 20 Pages 2008-10-24 00:00:00
vol.38 ch.330 : Crossing Swords 20 Pages 2008-10-17 00:00:00
vol.38 ch.329 : Raging Rampage 18 Pages 2008-10-10 00:00:00
vol.38 ch.328 : The Knuckle Debate 21 Pages 2008-10-05 00:00:00
vol.38 ch.327 : Knock Down Monsters 17 Pages 2008-09-26 00:00:00
vol.38 ch.326 : Knockdown Monster 20 Pages 2008-09-19 00:00:00
vol.38 ch.325 : Fear for the Fight 20 Pages 2008-09-12 00:00:00
vol.38 ch.324 : The Claws 20 Pages 2008-09-05 00:00:00
vol.38 ch.323 : Gloomy, Ghastly and Full of Despair 23 Pages 2008-08-29 00:00:00
vol.37 ch.322 : Oath Under the Rose 20 Pages 2008-08-22 00:00:00
vol.37 ch.321 : Black Briers and Brambles 20 Pages 2008-08-08 00:00:00
vol.37 ch.320 : Beauty Is So Solitary 21 Pages 2008-10-23 00:00:00
vol.37 ch.319 : Ants and Dragons 21 Pages 2008-07-25 00:00:00
vol.37 ch.318 : Five Towers / Four Pillars 18 Pages 2008-07-18 00:00:00
vol.37 ch.317.2 : Six Hearts Will Beat As One 22 Pages 2008-07-11 00:00:00
vol.37 ch.317.1 : Swang the Edge Down 18 Pages 2008-06-27 00:00:00
vol.37 ch.316.3 : Let Stop the Pendulum (Ch. -97) 20 Pages 2008-06-20 00:00:00
vol.37 ch.316.2 : Turn Back the Pendulum 11 (Ch. -98) 19 Pages 2008-06-13 00:00:00
vol.37 ch.316.1 : Turn Back the Pendulum 10 (Ch. -99) 23 Pages 2008-06-06 00:00:00
vol.36 ch.315.9 : Turn Back The Pendulum 9 (Ch. -100) 20 Pages 2008-05-30 00:00:00
vol.36 ch.315.8 : Turn Back The Pendulum 8 (Ch. -101) 20 Pages 2008-05-23 00:00:00
vol.36 ch.315.7 : Turn Back The Pendulum 7 (Ch. -102) 20 Pages 2008-05-16 00:00:00
vol.36 ch.315.6 : Turn Back The Pendulum 6 (Ch. -103) 20 Pages 2008-05-09 00:00:00
vol.36 ch.315.5 : Turn Back the Pendulum 5 (Ch. -104) 21 Pages 2008-04-27 00:00:00
vol.36 ch.315.4 : Turn Back the Pendulum 4 (Ch. -105) 20 Pages 2008-04-18 00:00:00
vol.36 ch.315.3 : Turn Back the Pendulum 3 (Ch. -106) 19 Pages 2008-04-11 00:00:00
vol.36 ch.315.2 : Turn Back the Pendulum 2 (Ch. -107) 22 Pages 2008-04-04 00:00:00
vol.36 ch.315.1 : Turn Back The Pendulum (Ch. -108) 20 Pages 2008-03-28 00:00:00
vol.35 ch.315 : March of the Death 17 Pages 2008-03-21 00:00:00
vol.35 ch.314 : Night Side of Abduction 17 Pages 2008-03-14 00:00:00
vol.35 ch.313 : To Close Your World 20 Pages 2008-03-07 00:00:00
vol.35 ch.312 : Fervorous - Ferocious 20 Pages 2008-02-29 00:00:00
vol.35 ch.311 : The Undead 20 Pages 2008-02-23 00:00:00
vol.35 ch.310 : Four Arms to Killing You 20 Pages 2008-02-16 00:00:00
vol.35 ch.309 : Pray for the Mantis 20 Pages 2008-02-09 00:00:00
vol.35 ch.308 : Satan from Orbit 16 Pages 2008-02-02 00:00:00
vol.35 ch.307 : Bite It, Slash It 22 Pages 2008-01-26 00:00:00
vol.35 ch.306 : Not Perfect Is GOOD 21 Pages 2008-01-19 00:00:00
vol.34 ch.305 : The Rising Phoenix 20 Pages 2007-12-31 00:00:00
vol.34 ch.304 : Battle of Barbarians 17 Pages 2007-12-22 00:00:00
vol.34 ch.303 : Dumdum-Dummy-Dumbstruck 18 Pages 2007-12-08 00:00:00
vol.34 ch.302 : Pride on the Blade 20 Pages 2007-12-01 00:00:00
vol.34 ch.301 : Shut Up and Die 21 Pages 2007-11-24 00:00:00
vol.34 ch.300 : Curse Named Love 18 Pages 2007-11-17 00:00:00
vol.34 ch.299 : The Verbal Warfare 19 Pages 2007-11-10 00:00:00
vol.34 ch.298 : INTRUDERZ3 20 Pages 2007-11-02 00:00:00
vol.34 ch.297 : King of the Kill 17 Pages 2007-10-30 00:00:00
vol.34 ch.296 : Changed Again and Again 18 Pages 2008-02-02 00:00:00
vol.33 ch.295 : The Last Mission 16 Pages 2008-02-02 00:00:00
vol.33 ch.294 : If You Call Me Beast, Kill You Like Tempest 21 Pages 2007-11-18 00:00:00
vol.33 ch.293 : Urge for Unite 24 Pages 2007-11-18 00:00:00
vol.33 ch.292 : Rupture My Replica 18 Pages 2007-11-18 00:00:00
vol.33 ch.291 : Thank You for Defending Me 19 Pages 2007-11-18 00:00:00
vol.33 ch.290 : The Broken Mask 22 Pages 2007-10-14 00:00:00
vol.33 ch.289 : The Scarmask 21 Pages 2007-10-14 00:00:00
vol.33 ch.288 : The Bad Joke 23 Pages 2007-10-14 00:00:00
vol.33 ch.287 : Dont Forget Till You Die 17 Pages 2007-10-14 00:00:00
vol.32 ch.286.5 : [BLEACH:untold stories] -16 To Die on an Ice Field 24 Pages 2009-10-15 00:00:00
vol.32 ch.286 : Tooth and Nail 19 Pages 2007-10-14 00:00:00
vol.32 ch.285 : Eating Meat Alone 26 Pages 2007-10-14 00:00:00
vol.32 ch.284 : Historia de Pantera y su Sombras (The Panthers and the Shadow's H... 23 Pages 2007-10-14 00:00:00
vol.32 ch.283 : You Don't Hurt Anymore 25 Pages 2007-10-14 00:00:00
vol.32 ch.282 : The Primal Fear 21 Pages 2007-10-14 00:00:00
vol.32 ch.281 : The Vulgarian Noise 21 Pages 2007-10-14 00:00:00
vol.32 ch.280 : Jugulators 2 26 Pages 2007-10-14 00:00:00
vol.32 ch.279 : Jugulators 22 Pages 2007-10-14 00:00:00
vol.31 ch.278 : Heal for the Crash 26 Pages 2007-10-14 00:00:00
vol.31 ch.277 : Corrosion of Conformity 22 Pages 2007-10-14 00:00:00
vol.31 ch.276 : Blookin' Beast 20 Pages 2007-10-14 00:00:00
vol.31 ch.275 : United Front 2 [Red and White] 23 Pages 2007-10-14 00:00:00
vol.31 ch.274 : The Monster 21 Pages 2007-10-14 00:00:00
vol.31 ch.273 : Dog Eat Dog 25 Pages 2007-10-14 00:00:00
vol.31 ch.272 : Don't Kill My Volupture 25 Pages 2007-10-14 00:00:00
vol.31 ch.271 : If You Rise from the Ashes 25 Pages 2007-10-14 00:00:00
vol.31 ch.270 : WARning 25 Pages 2007-10-14 00:00:00
vol.30 ch.269 : The End Is Near 27 Pages 2007-10-14 00:00:00
vol.30 ch.268 : You - -Don't Give in to Death 23 Pages 2007-10-14 00:00:00
vol.30 ch.267 : Legions of the Reglets 22 Pages 2007-10-14 00:00:00
vol.30 ch.266 : Hide Away from the Sun 22 Pages 2007-10-14 00:00:00
vol.30 ch.265 : Bang the Bore 22 Pages 2007-10-14 00:00:00
vol.30 ch.264 : Don't Say that Name Again 23 Pages 2007-10-14 00:00:00
vol.30 ch.263 : Unexpected 26 Pages 2007-10-14 00:00:00
vol.30 ch.262 : Unblendable 25 Pages 2007-10-14 00:00:00
vol.30 ch.261 : Left Arm of the Devil 25 Pages 2007-10-14 00:00:00
vol.29 ch.260.5 : Bleach on the Beach 5 Pages 2010-03-24 00:00:00
vol.29 ch.260 : Right Arm of the Giant 2 26 Pages 2007-10-14 00:00:00
vol.29 ch.259 : Flicker Flames 28 Pages 2007-10-14 00:00:00
vol.29 ch.258 : Seele Schneider 23 Pages 2007-10-14 00:00:00
vol.29 ch.257 : The Bird Hunter 21 Pages 2008-02-02 00:00:00
vol.29 ch.256 : Infinite Slick 20 Pages 2007-10-14 00:00:00
vol.29 ch.255 : Don't Breathe in the Bush 22 Pages 2007-10-14 00:00:00
vol.29 ch.254 : Deja Chocolate Aqui 27 Pages 2007-10-14 00:00:00
vol.29 ch.253 : Don't Call Me Nino 21 Pages 2007-10-14 00:00:00
vol.29 ch.252 : Rebut to the Baron's Lecture 28 Pages 2007-10-14 00:00:00
vol.28 ch.251 : Baron's Lecture 1st Period 23 Pages 2007-10-14 00:00:00
vol.28 ch.250 : Five Ways to Three Figures 22 Pages 2007-10-14 00:00:00
vol.28 ch.249 : Back to the Innocent 28 Pages 2007-10-14 00:00:00
vol.28 ch.248 : Come Back Alive to this Place 24 Pages 2007-10-14 00:00:00
vol.28 ch.247 : United on the Desert 27 Pages 2007-10-14 00:00:00
vol.28 ch.246 : The Great Desert Bros. 24 Pages 2007-10-14 00:00:00
vol.28 ch.245 : The Way Without Enemies 26 Pages 2007-10-14 00:00:00
vol.28 ch.244 : Born from the Fear 19 Pages 2007-10-14 00:00:00
vol.28 ch.243 : The Knuckle and the Arrow 23 Pages 2007-10-14 00:00:00
vol.27 ch.242 : Two Men Are Burning 25 Pages 2007-10-14 00:00:00
vol.27 ch.241 : Silverflame 24 Pages 2007-10-14 00:00:00
vol.27 ch.240 : Regeneration 25 Pages 2007-10-14 00:00:00
vol.27 ch.239 : Winged Eagles 26 Pages 2007-10-14 00:00:00
vol.27 ch.238 : Eagle Without Wings 31 Pages 2007-10-14 00:00:00
vol.27 ch.237 : Goodbye, Halcyon Days 26 Pages 2007-10-14 00:00:00
vol.27 ch.236 : The Sun Already Gone Down 25 Pages 2007-10-14 00:00:00
vol.27 ch.235 : The Frozen Clutch 24 Pages 2007-10-14 00:00:00
vol.27 ch.234 : Not Negotiation 22 Pages 2007-10-14 00:00:00
vol.26 ch.233 : El Violador 25 Pages 2007-10-14 00:00:00
vol.26 ch.232 : The Mascaron Drive 2 26 Pages 2007-10-14 00:00:00
vol.26 ch.231 : The Mascaron Drive 25 Pages 2007-10-14 00:00:00
vol.26 ch.230 : The White Invasion 24 Pages 2007-10-14 00:00:00
vol.26 ch.229 : The Howling Tempest 26 Pages 2007-10-14 00:00:00
vol.26 ch.228 : Don't Look Back 24 Pages 2007-10-14 00:00:00
vol.26 ch.227 : The Swordless Soldier 25 Pages 2007-10-14 00:00:00
vol.26 ch.226 : The Right of the Heart 23 Pages 2007-10-14 00:00:00
vol.26 ch.225 : Slip into My Barrier 24 Pages 2007-10-14 00:00:00
vol.26 ch.224 : Imitated Gaiety 25 Pages 2007-10-14 00:00:00
vol.25 ch.223 : The Scarlet Creation 26 Pages 2007-10-14 00:00:00
vol.25 ch.222 : No Shaking Throne 27 Pages 2007-10-14 00:00:00
vol.25 ch.221 : Let Eat the World's End 20 Pages 2007-10-14 00:00:00
vol.25 ch.220 : King and His Horse 28 Pages 2007-10-14 00:00:00
vol.25 ch.219 : Black and White 3 20 Pages 2007-10-14 00:00:00
vol.25 ch.218 : Dark Side of the Universe 3 27 Pages 2007-10-14 00:00:00
vol.25 ch.217 : Hole in My Heart 19 Pages 2007-10-14 00:00:00
vol.25 ch.216 : The Suppression of Darkness 23 Pages 2007-10-14 00:00:00
vol.25 ch.215 : Tug Your Gut Out 25 Pages 2007-10-14 00:00:00
vol.24 ch.214 : Immanent God Blues 25 Pages 2007-10-14 00:00:00
vol.24 ch.213 : Trifle 25 Pages 2007-10-14 00:00:00
vol.24 ch.212 : You Don't Hear My Name Anymore 21 Pages 2007-10-14 00:00:00
vol.24 ch.211 : Stroke of Sanity 24 Pages 2007-10-14 00:00:00
vol.24 ch.210 : Turn the True Power On 18 Pages 2007-10-14 00:00:00
vol.24 ch.209 : Lift the Limit 28 Pages 2007-10-14 00:00:00
vol.24 ch.208 : The Scissors 23 Pages 2007-10-14 00:00:00
vol.24 ch.207 : Mode: Genocide 22 Pages 2007-10-14 00:00:00
vol.24 ch.206 : Mala Suerte! 5 "Lucky" 24 Pages 2007-10-14 00:00:00
vol.23 ch.205.2 : [0 side-B] The Rotator 13 Pages 2009-07-23 00:00:00
vol.23 ch.205.1 : [0 side-A] The Sand 10 Pages 2009-07-23 00:00:00
vol.23 ch.205 : Mala Suerte! 4 [Monstruo Monstruo] 20 Pages 2007-10-14 00:00:00
vol.23 ch.204 : Mala Suerte 3! [Monstruo Sangrieta] 28 Pages 2007-10-14 00:00:00
vol.23 ch.203 : Mala Suerte! 2 [El Monstruo] 23 Pages 2007-10-14 00:00:00
vol.23 ch.202 : Mala Suerte! 27 Pages 2007-10-14 00:00:00
vol.23 ch.201 : Wind and Snowbound 28 Pages 2007-10-14 00:00:00
vol.23 ch.200 : Night of Sledgehammer 19 Pages 2007-10-14 00:00:00
vol.23 ch.199 : Ugly 24 Pages 2007-10-14 00:00:00
vol.23 ch.198 : The Icecold Discord 23 Pages 2007-10-14 00:00:00
vol.22 ch.197 : The Approaching Danger 25 Pages 2007-10-14 00:00:00
vol.22 ch.196 : Punch Down the Stonecicle 21 Pages 2007-10-14 00:00:00
vol.22 ch.195 : Death and Strawberry (Reprise) 20 Pages 2007-10-14 00:00:00
vol.22 ch.194 : Conquistadores 5 [La Basura] 19 Pages 2007-10-14 00:00:00
vol.22 ch.193 : Conquistadores 4 [Ebony & Ivory] 23 Pages 2007-10-14 00:00:00
vol.22 ch.192 : Conquistadores 3 [Hounded Priestess] 21 Pages 2007-10-14 00:00:00
vol.22 ch.191 : Conquistadores 2 [Screaming Symphony] 21 Pages 2007-10-14 00:00:00
vol.22 ch.190 : Conquistadores 21 Pages 2007-10-14 00:00:00
vol.22 ch.189 : Resolve 22 Pages 2007-10-14 00:00:00
vol.22 ch.188 : Crush the World Down 22 Pages 2007-10-14 00:00:00
vol.21 ch.187 : The Cigar Blues Part Two 20 Pages 2007-10-14 00:00:00
vol.21 ch.186 : Tell Your Children the Truth 22 Pages 2007-10-14 00:00:00
vol.21 ch.185 : Be My Family or Not 24 Pages 2007-10-14 00:00:00
vol.21 ch.184 : Hush 22 Pages 2007-10-14 00:00:00
vol.21 ch.183 : Eyes of the Unknown 22 Pages 2007-10-14 00:00:00
vol.21 ch.182 : Get Back from the Storm [Trigger for a New Concerto] 23 Pages 2007-10-14 00:00:00
vol.21 ch.181 : And the Rain Left Off 22 Pages 2007-10-14 00:00:00
vol.21 ch.180 : Something in the Aftermath 24 Pages 2007-10-14 00:00:00
vol.21 ch.179 : Confession in the Twilight 21 Pages 2008-02-02 00:00:00
vol.20 ch.178 : End of Hypnosis 9 [No One Stand on the Sky] 20 Pages 2007-10-14 00:00:00
vol.20 ch.177 : End of Hypnosis 9 [Completely Encompass] 20 Pages 2007-10-14 00:00:00
vol.20 ch.176 : End of Hypnosis 8 [The Transfixion] 29 Pages 2007-10-14 00:00:00
vol.20 ch.175 : End of Hypnosis 7 [Truth Under My Strings] 22 Pages 2007-10-14 00:00:00
vol.20 ch.174 : End of Hypnosis 6 [The United Front] 23 Pages 2007-10-14 00:00:00
vol.20 ch.173 : End of Hypnosis 5 [Standing to Defend You] 22 Pages 2007-10-14 00:00:00
vol.20 ch.172 : End Of Hypnosis 4 [Prisoners in Paradise] 20 Pages 2007-10-14 00:00:00
vol.20 ch.171 : End Of Hypnosis 3 [The Blue Fog] 20 Pages 2007-10-14 00:00:00
vol.20 ch.170 : End Of Hypnosis 2 [The Galvanizer] 23 Pages 2007-10-14 00:00:00
vol.20 ch.169 : End of Hypnosis 22 Pages 2007-10-14 00:00:00
vol.20 ch.168.5 : -12.5 Blooming Under a Cold Moon 9 Pages 2009-07-23 00:00:00
vol.19 ch.168 : Behind Me, Behind You 20 Pages 2007-10-14 00:00:00
vol.19 ch.167 : The Burial Chamber 20 Pages 2007-10-14 00:00:00
vol.19 ch.166 : Black and White 2 21 Pages 2007-10-14 00:00:00
vol.19 ch.165 : Dark Side of Universe 2 23 Pages 2007-10-14 00:00:00
vol.19 ch.164 : That Who Change the World 21 Pages 2007-10-14 00:00:00
vol.19 ch.163 : The Speed Phantom 2 [Denial by Pride, Contradiction by Power] 22 Pages 2007-10-14 00:00:00
vol.19 ch.162 : Black Moon Rising 18 Pages 2007-10-14 00:00:00
vol.19 ch.161 : Scratch in the Sky 21 Pages 2007-10-14 00:00:00
vol.19 ch.160 : Battle on the Gulilotine Hill 20 Pages 2007-10-14 00:00:00
vol.19 ch.159 : Long Way to Say Goodbye 21 Pages 2007-10-14 00:00:00
vol.18 ch.158 : Sky Leopardess 21 Pages 2007-10-14 00:00:00
vol.18 ch.157 : Cat and Hornet 21 Pages 2007-10-14 00:00:00
vol.18 ch.156 : Welcome to Purgatory 18 Pages 2007-10-14 00:00:00
vol.18 ch.155 : Redoundable Deeds / Redoubtful Babies 25 Pages 2007-10-14 00:00:00
vol.18 ch.154 : The God of Flash 20 Pages 2007-10-14 00:00:00
vol.18 ch.153 : Empty Dialogue 24 Pages 2007-10-14 00:00:00
vol.18 ch.152 : The Speed Phantom 22 Pages 2007-10-14 00:00:00
vol.18 ch.151 : Deathberry Returns 25 Pages 2007-10-14 00:00:00
vol.18 ch.150 : Countdown to the End:0 21 Pages 2007-10-14 00:00:00
vol.17 ch.149 : Countdown to the End:1 (Only Mercifully) 22 Pages 2007-10-14 00:00:00
vol.17 ch.148 : Countdown to the End:2 19 Pages 2007-10-14 00:00:00
vol.17 ch.147 : Countdown To The End:3 21 Pages 2007-10-14 00:00:00
vol.17 ch.146 : Demon Loves the Dark 20 Pages 2007-10-14 00:00:00
vol.17 ch.145 : Shaken 20 Pages 2007-10-14 00:00:00
vol.17 ch.144 : Rosa Rubloundior, Lillo Candidlor 21 Pages 2007-10-14 00:00:00
vol.17 ch.143 : Parthian Shaft 22 Pages 2007-10-14 00:00:00
vol.17 ch.142 : Tsuki Wo Tora Umono Ha Tsugu 19 Pages 2007-10-14 00:00:00
vol.17 ch.141 : Kneel to the Baboon King 20 Pages 2007-10-14 00:00:00
vol.17 ch.140 : Bite the Moon 21 Pages 2007-10-14 00:00:00
vol.16 ch.139 : Drowsy, Bloody, Crazy 20 Pages 2007-10-14 00:00:00
vol.16 ch.138 : Individual Thoughts 21 Pages 2007-10-14 00:00:00
vol.16 ch.137 : Surrounding Clutch 20 Pages 2007-10-14 00:00:00
vol.16 ch.136 : Memories in the Rain 2 Op.4 "Night of Wijinruit" 20 Pages 2007-10-14 00:00:00
vol.16 ch.135 : Memories in the Rain 2 Op.3 "Stepping into Darkness" 20 Pages 2007-10-14 00:00:00
vol.16 ch.134 : Memories in the Rain 2 Op.2 "Longing for Sanctuary" 20 Pages 2007-10-14 00:00:00
vol.16 ch.133 : Memories in the Rain 2 "The Nocturne" 23 Pages 2007-10-14 00:00:00
vol.16 ch.132 : Creeping Limit 22 Pages 2007-10-14 00:00:00
vol.16 ch.131 : The True Will 21 Pages 2007-10-14 00:00:00
vol.15 ch.130.5 : -17 Prelude for the Straying Stars 36 Pages 2009-07-23 00:00:00
vol.15 ch.130 : Suspicion 2 [of Tears] 21 Pages 2007-10-14 00:00:00
vol.15 ch.129 : Suspicion [for Assassination] 21 Pages 2007-10-14 00:00:00
vol.15 ch.128 : The Great Joint Struggle Union 19 Pages 2007-10-14 00:00:00
vol.15 ch.127 : Beginning of the Death of Tomorrow 19 Pages 2007-10-14 00:00:00
vol.15 ch.126 : The Last of a Void War 20 Pages 2007-10-14 00:00:00
vol.15 ch.125 : Insanity and Genius 20 Pages 2007-10-14 00:00:00
vol.15 ch.124 : Crying Little People 20 Pages 2007-10-14 00:00:00
vol.14 ch.123 : Pledge My Pride To 21 Pages 2007-10-14 00:00:00
vol.14 ch.122 : Don't Lose Your Grip On 20 Pages 2007-10-14 00:00:00
vol.14 ch.121 : In Sane We Trust 21 Pages 2007-10-14 00:00:00
vol.14 ch.120 : Shake Hands with Grenades 22 Pages 2007-10-14 00:00:00
vol.14 ch.119 : Secret of the Moon 21 Pages 2007-10-14 00:00:00
vol.14 ch.118 : The Supernal Tag 24 Pages 2007-10-14 00:00:00
vol.14 ch.117 : Remnant 2 [Deny the Shadow] 22 Pages 2007-10-14 00:00:00
vol.14 ch.116 : White Tower Rocks 50 Pages 2007-10-14 00:00:00
vol.13 ch.115 : Remnant 21 Pages 2007-10-14 00:00:00
vol.13 ch.114 : Everything About the World Soon to Collapse 21 Pages 2007-10-14 00:00:00
vol.13 ch.113 : The Undead 3 [Closing Frantica] 20 Pages 2007-10-14 00:00:00
vol.13 ch.112 : The Undead 2 [Rise and Craze] 21 Pages 2007-10-14 00:00:00
vol.13 ch.111 : Black and White 22 Pages 2007-10-14 00:00:00
vol.13 ch.110 : Dark Side of the Universe 21 Pages 2007-10-14 00:00:00
vol.13 ch.109 : Like a Tiger Treading on the Flowers 21 Pages 2007-10-14 00:00:00
vol.13 ch.108 : Time for Scare 29 Pages 2007-10-14 00:00:00
vol.12 ch.107.5 : 0.8a Wonderful Error 13 Pages 2009-07-23 00:00:00
vol.12 ch.107 : Heat in Trust 20 Pages 2007-10-14 00:00:00
vol.12 ch.106 : Cause for Confront 21 Pages 2007-10-14 00:00:00
vol.12 ch.105 : Spring, Spring, Meets the Tiger 19 Pages 2007-10-14 00:00:00
vol.12 ch.104 : The Undead 20 Pages 2007-10-14 00:00:00
vol.12 ch.103 : Dominion 18 Pages 2007-10-14 00:00:00
vol.12 ch.102 : Nobody Beats 21 Pages 2007-10-14 00:00:00
vol.12 ch.101 : Split Under the Red Stalk 21 Pages 2007-10-14 00:00:00
vol.12 ch.100 : Like the Flower on the Rock Wall 20 Pages 2007-10-14 00:00:00
vol.12 ch.99 : Dead Black War Cloud 22 Pages 2007-10-14 00:00:00
vol.11 ch.98 : The Star and the Tramp 19 Pages 2007-10-14 00:00:00
vol.11 ch.97 : Talk About Your Fear 20 Pages 2007-10-14 00:00:00
vol.11 ch.96 : Bloodred Conflict 20 Pages 2007-10-14 00:00:00
vol.11 ch.95 : CRUSH 21 Pages 2007-10-14 00:00:00
vol.11 ch.94 : Gaol Named Remorse 18 Pages 2007-10-14 00:00:00
vol.11 ch.93 : Steer for the Star 19 Pages 2007-10-14 00:00:00
vol.11 ch.92 : Masterly! And Farewell! [Reprise] 20 Pages 2007-10-14 00:00:00
vol.11 ch.91 : King of Freichutz 24 Pages 2007-10-14 00:00:00
vol.11 ch.90 : See You Under a Firework 20 Pages 2007-10-14 00:00:00
vol.11 ch.89 : Masterly! And Farewell! 25 Pages 2007-10-14 00:00:00
vol.10 ch.88.2 : Karakura Super Heroes 5 Pages 2007-10-14 00:00:00
vol.10 ch.88.1 : So Unlucky We Are 20 Pages 2007-10-14 00:00:00
vol.10 ch.87 : Dancing with Spears 25 Pages 2007-10-14 00:00:00
vol.10 ch.86 : Making Good Relations, OK? 20 Pages 2007-10-14 00:00:00
vol.10 ch.85 : INTRUDERZ 2 21 Pages 2007-10-14 00:00:00
vol.10 ch.84 : The Shooting Star Project 2 [Tattoo on the Sky] 20 Pages 2007-10-14 00:00:00
vol.10 ch.83 : Come with Me 20 Pages 2007-10-14 00:00:00
vol.10 ch.82 : Confictable Composition 19 Pages 2007-10-14 00:00:00
vol.10 ch.81 : Twelve Tone Rendevous 19 Pages 2007-10-14 00:00:00
vol.10 ch.80 : The Shooting Star Project 25 Pages 2007-10-14 00:00:00
vol.9 ch.79 : Fourteen Days for Conspiracy 23 Pages 2007-10-14 00:00:00
vol.9 ch.78 : meeT iT aT basemenT 20 Pages 2007-10-14 00:00:00
vol.9 ch.77 : My Name Is Ganju 20 Pages 2007-10-14 00:00:00
vol.9 ch.76 : Boarrider Comin' 20 Pages 2007-10-14 00:00:00
vol.9 ch.75 : Rain of Blood 20 Pages 2007-10-14 00:00:00
vol.9 ch.74 : Armlost, Armlost 20 Pages 2007-10-14 00:00:00
vol.9 ch.73 : Drizzly Axes 18 Pages 2007-10-14 00:00:00
vol.9 ch.72 : The Superchunk 20 Pages 2007-10-14 00:00:00
vol.9 ch.71 : Intruders 25 Pages 2007-10-14 00:00:00
vol.8 ch.70 : Where Hollows Fear to Tread 17 Pages 2007-10-14 00:00:00
vol.8 ch.69 : 25:00 Gathering 21 Pages 2007-10-14 00:00:00
vol.8 ch.68 : Last Summer Vacation 20 Pages 2007-10-14 00:00:00
vol.8 ch.67 : "End of Lesson" 21 Pages 2007-10-14 00:00:00
vol.8 ch.66 : The Blade and Me 21 Pages 2007-10-14 00:00:00
vol.8 ch.65 : Collisions 20 Pages 2007-10-14 00:00:00
vol.8 ch.64 : BACK IN BLACK 22 Pages 2007-10-14 00:00:00
vol.8 ch.63 : Lesson 2-3: Innercircle Breakdown 20 Pages 2007-10-14 00:00:00
vol.8 ch.62 : Lesson2-2: Bad Endin' in the Shaft 26 Pages 2007-10-14 00:00:00
vol.7 ch.61 : Lesson2: Shattered Shaft 19 Pages 2007-10-14 00:00:00
vol.7 ch.60 : Lesson 1-2: Down!! 21 Pages 2007-10-14 00:00:00
vol.7 ch.59 : Lesson 1: One Strike + Jailed at Home 21 Pages 2007-10-14 00:00:00
vol.7 ch.58 : Blank 23 Pages 2007-10-14 00:00:00
vol.7 ch.57 : Unfinished July Rain 21 Pages 2007-10-14 00:00:00
vol.7 ch.56 : Broken Coda 21 Pages 2007-10-14 00:00:00
vol.7 ch.55 : SHUT 21 Pages 2007-10-14 00:00:00
vol.7 ch.54 : The Rookie that Can't Ask It's Name 21 Pages 2007-10-14 00:00:00
vol.7 ch.53 : Nice to Meet You. I Will Beat You. 23 Pages 2007-10-14 00:00:00
vol.6 ch.52 : (Needless Emotions) 21 Pages 2007-10-14 00:00:00
vol.6 ch.51 : DEATH 3 23 Pages 2009-04-19 00:00:00
vol.6 ch.50 : Quincy Archer Hates You Part 2 [Blind but Bleed Mix] 21 Pages 2009-04-19 00:00:00
vol.6 ch.49 : Unchained 21 Pages 2007-10-14 00:00:00
vol.6 ch.48 : Menos Grande 19 Pages 2007-10-14 00:00:00
vol.6 ch.47 : Back to Back ~ Tearing Sky 19 Pages 2007-10-14 00:00:00
vol.6 ch.46 : Karneades ~ Back to Back 20 Pages 2007-10-14 00:00:00
vol.6 ch.45 : PoInt of Purpose 19 Pages 2007-10-14 00:00:00
vol.6 ch.44 : Awaken [to the Threat] 23 Pages 2007-10-14 00:00:00
vol.5 ch.43 : Princess & Dragon Part.3 ''Six Flowers'' 20 Pages 2007-10-14 00:00:00
vol.5 ch.42 : Princess & Dragon Part.2 ''The Majestic'' 20 Pages 2007-10-14 00:00:00
vol.5 ch.41 : Princess & Dragon 19 Pages 2007-10-14 00:00:00
vol.5 ch.40 : Grow? 19 Pages 2007-10-14 00:00:00
vol.5 ch.39 : Right Arm of the Giant 20 Pages 2007-10-14 00:00:00
vol.5 ch.38 : BENT 20 Pages 2007-10-14 00:00:00
vol.5 ch.37 : Crossing the Rubicon 20 Pages 2007-10-14 00:00:00
vol.5 ch.36 : For the Sake of Revenge, Lead Us to Death 20 Pages 2007-10-14 00:00:00
vol.5 ch.35 : Can You Be My Enemy? 21 Pages 2007-10-14 00:00:00
vol.4 ch.34 : Quincy Archer Hates You 23 Pages 2007-10-14 00:00:00
vol.4 ch.33 : ROCKIN' FUTURE 7 20 Pages 2007-10-14 00:00:00
vol.4 ch.32 : Hero Is Always with Me? 22 Pages 2007-10-14 00:00:00
vol.4 ch.31 : HEROES CAN SAVE YOU 20 Pages 2007-10-14 00:00:00
vol.4 ch.30 : Second Contact [It Was Outside the Scope of Our Understanding] 20 Pages 2007-10-14 00:00:00
vol.4 ch.29 : Stop that Stupid!! 20 Pages 2007-10-14 00:00:00
vol.4 ch.28 : Symptom of Synesthesia 20 Pages 2007-10-14 00:00:00
vol.4 ch.27 : Spirits Ain't Always WITH US 20 Pages 2007-10-14 00:00:00
vol.4 ch.26 : Paradise Is Nowhere 22 Pages 2007-10-14 00:00:00
vol.3 ch.25.2 : Things Like Loneliness 4 Pages 2009-07-23 00:00:00
vol.3 ch.25 : 6/17 op.9 "Fighting Boy 2 [The Cigar Blues Mix]" 21 Pages 2007-10-14 00:00:00
vol.3 ch.24 : 6/17 op.8 "All One Way Sympathies" 20 Pages 2007-10-14 00:00:00
vol.3 ch.23 : 6/17 op.7 "Sharp Intent, Dull Blade" 20 Pages 2007-10-14 00:00:00
vol.3 ch.22 : 6/17 op.6 "BATTLE ON GRAVEYARD" 20 Pages 2007-10-14 00:00:00
vol.3 ch.21 : 6/17 op.5 "Fighting Boy" 20 Pages 2007-10-14 00:00:00
vol.3 ch.20 : 6/17 op.4 "Face Again" 24 Pages 2008-12-05 00:00:00
vol.3 ch.19 : 6/17 op.3 "Memories in the Rain" 20 Pages 2007-10-14 00:00:00
vol.3 ch.18 : 6/17 op.2 "Can't Smile Don't Blame" 18 Pages 2007-10-14 00:00:00
vol.3 ch.17 : 6/17 22 Pages 2007-10-14 00:00:00
vol.2 ch.16 : Wasted but Wanted 24 Pages 2007-10-14 00:00:00
vol.2 ch.15 : Jumpin' Jack, Jolted 20 Pages 2007-10-14 00:00:00
vol.2 ch.14 : School Daze!!! 20 Pages 2007-10-14 00:00:00
vol.2 ch.13 : Bad Standard 19 Pages 2007-10-14 00:00:00
vol.2 ch.12 : The Gate of the End 19 Pages 2007-10-14 00:00:00
vol.2 ch.11 : Back [Leachbomb or Mom] 20 Pages 2007-10-14 00:00:00
vol.2 ch.10 : Monster and a Transfer pt.2 [The Deathberry] 20 Pages 2007-10-14 00:00:00
vol.2 ch.9 : Monster and a Transfer [Struck Down] 20 Pages 2007-10-14 00:00:00
vol.2 ch.8 : Chase Chad Around 22 Pages 2007-10-14 00:00:00
vol.1 ch.7 : Chad Yasutora 24 Pages 2007-10-14 00:00:00
vol.1 ch.6 : Microcrack 20 Pages 2007-10-14 00:00:00
vol.1 ch.5 : Binda Blinda 20 Pages 2007-10-14 00:00:00
vol.1 ch.4 : Why Do You Eat It 20 Pages 2007-10-14 00:00:00
vol.1 ch.3 : Orihime Inoue 22 Pages 2007-10-14 00:00:00
vol.1 ch.2 : Starter 24 Pages 2007-10-14 00:00:00
vol.1 ch.1 : Death & Strawberry 57 Pages 2007-10-14 00:00:00
vol.0 ch.0 : One shot - Pilot 46 Pages 2011-09-01 00:00:00
vol.55 ch.487 : Breathe But Blind 22 Pages 2017-06-04 21:42:00
vol.55 ch.486 : The Crimson Cremation 20 Pages 2017-03-22 12:42:00
vol.55 ch.485v2 : Foundation Stones 20 Pages 2017-03-18 20:57:00
vol.55 ch.485 v2 : Foundation Stones 20 Pages 2017-03-18 20:27:00
vol.55 ch.485 : Foundation Stones 20 Pages 2017-03-18 20:19:00
vol.55 ch.484 : The Buckbeard 18 Pages 2017-03-16 19:49:00
vol.55 ch.483 : KriegsErklärung 21 Pages 2017-01-29 20:33:00
vol.55 ch.482 : Bad Recognition 20 Pages 2017-01-29 20:34:00
vol.55 ch.481 : The Tearing 19 Pages 2017-01-24 12:46:00
vol.55 ch.480 : The Blood Warfare 23 Pages 2017-01-22 21:04:00
vol.48 ch.415 : deicide17 19 Pages 2015-07-04 20:21:00
vol.41 ch.352 : The Lust 6 23 Pages 2016-01-03 12:05:00
vol.41 ch.351 : The Lust 5 22 Pages 2016-01-03 12:07:00
vol.41 ch.350a : The Lust 4 23 Pages 2016-01-03 12:09:00
vol.41 ch.350 : The Lust 4 24 Pages 2016-01-03 12:08:00
vol.30 ch.268 : You Shall Not Die 20 Pages 2015-07-04 20:21:00
vol.1 ch.5 : Binda•blinda 21 Pages 2015-05-29 23:19:00
vol.1 ch.4 : WHY DO YOU EAT IT? 21 Pages 2015-05-20 17:40:00
vol.1 ch.3 : Headhittin' 23 Pages 2015-05-15 17:19:00
vol.1 ch.2 : Starter 25 Pages 2015-05-14 21:44:00
vol.1 ch.2--v2- : Starter 25 Pages 2015-05-14 22:06:00
vol.1 ch.1 : Death & Strawberry 57 Pages 2015-05-09 14:52:00
ch.686 : Death And Strawberry 28 Pages 2016-08-18 11:28:00
ch.685 : A Perfect End 23 Pages 2016-08-04 13:43:00
ch.684 : C:\Users\Administrator\Desktop\in\Bleach\684 - The Blade 20 Pages 2016-07-28 09:32:00
ch.683 : The Dark Side of Two World Ends 21 Pages 2016-07-21 09:33:00
ch.682 : The Two Sided World End 22 Pages 2016-07-13 10:40:00
ch.681 : The End Two World 22 Pages 2016-07-07 09:34:00
ch.680 : The End 2 23 Pages 2016-06-30 12:54:00
ch.679 : The End 19 Pages 2016-06-23 13:04:00
ch.678 : The Future Black 20 Pages 2016-06-16 11:27:00
ch.677 : Horn Of Salvation 2 21 Pages 2016-06-09 10:58:00
ch.676 : Horn of Salvation 17 Pages 2016-06-02 12:22:00
ch.675 : Blood for My Bone 21 Pages 2016-05-26 11:56:00
ch.674 : Father 2 22 Pages 2016-05-19 10:17:00
ch.673 : Father 20 Pages 2016-05-26 12:00:00
ch.672 : Son of Darkness 21 Pages 2016-05-02 13:39:00
ch.671 : The Perfect Crimson 2 21 Pages 2016-04-21 09:45:00
ch.670 : The Perfect Crimson 21 Pages 2016-04-14 09:51:00
ch.669 : Yaiba II 20 Pages 2016-04-07 12:04:00
ch.668 : Bigger, Faster, Stronger 22 Pages 2016-03-31 11:45:00
ch.667 : Bigger, Louder, Stronger 22 Pages 2016-03-24 21:31:00
ch.666 : Empty Hall Of The Puppet Temple 22 Pages 2016-03-16 20:07:00
ch.665 : The Princess Dissection 20 Pages 2016-03-10 17:34:00
ch.664 : The Gift 22 Pages 2016-02-26 05:14:00
ch.663 : God Of Thunder 4 22 Pages 2016-02-18 14:12:00
ch.662 : God Of Thunder 3 21 Pages 2016-02-10 15:34:00
ch.661 : My Last Word 20 Pages 2016-02-04 14:02:00
ch.660 : The Visible Answer 21 Pages 2016-01-28 13:58:00
ch.659 : There Will Be Frost 21 Pages 2016-01-21 13:16:00
ch.658 : Fatal Matters Are Cold 22 Pages 2016-01-14 12:32:00
ch.657 v2 : God Of Thunder 2 23 Pages 2016-01-14 12:32:00
ch.657 : God Of Thunder 2 23 Pages 2015-12-26 12:38:00
ch.656 : God Of Thunder 21 Pages 2015-12-17 14:02:00
ch.655 : The Miracle 19 Pages 2015-12-10 15:19:00
ch.654 : Deadman Standing 20 Pages 2015-12-03 23:59:00
ch.653 : The Theatre Suicide Scene 7 19 Pages 2015-11-27 09:15:00
ch.652 : The Theatre Suicide Scene 6 22 Pages 2015-11-19 17:06:00
ch.651 : The Theatre Suicide Scene 5 17 Pages 2015-11-12 04:39:00
ch.650 : The Theatre Suicide Scene 4 18 Pages 2015-11-05 05:25:00
ch.649 : The Theatre Suicide Scene 3 17 Pages 2015-10-29 06:36:00
ch.648 : The Theatre Suicide Scene 2 18 Pages 2015-10-22 06:49:00
ch.647 : The Theatre Suicide 17 Pages 2015-10-15 04:34:00
ch.646 : THE SECOND EYE 18 Pages 2015-10-07 05:45:00
ch.645 : Don't Chase A Shadow 18 Pages 2015-10-01 06:36:00
ch.644 : Baby, Hold Your Hand 7 18 Pages 2015-09-24 06:43:00
ch.643 : Baby, Hold Your Hand 6 18 Pages 2015-09-16 06:29:00
ch.642 : Baby, Hold Your Hand 4 [Eyes Are Open] 17 Pages 2015-09-10 05:59:00
ch.641 : Baby, Hold Your Hand 4 18 Pages 2015-09-03 07:03:00
ch.640 : Baby, Hold Your Hand 3 21 Pages 2015-08-27 05:59:00
ch.639 : Baby, Hold Your Hand 2 17 Pages 2015-08-20 06:04:00
ch.638 : Boiling malice and total comedy 18 Pages 2015-08-06 05:25:00
ch.637 : Baby, Hold Your Hand 17 Pages 2015-07-30 07:00:00
ch.636 : Sensitive Monster 18 Pages 2015-07-23 05:11:00
ch.635 : Hooden Enigma 18 Pages 2015-07-15 11:45:00
ch.634 : Friend 4 17 Pages 2015-07-09 11:04:00
ch.633 : Friend 3 18 Pages 2015-07-02 07:48:00
ch.632 : Friend 2 18 Pages 2015-06-25 07:22:00
ch.631 : Friend 18 Pages 2015-06-18 07:56:00
ch.630 : The Twinned Twilight 18 Pages 2015-06-11 07:08:00
ch.629 : Gate Of The Sun 18 Pages 2015-06-04 11:14:00
ch.628 : New World Orders 17 Pages 2015-05-28 08:39:00
ch.627 : The Creation 16 Pages 2015-05-21 08:40:00
ch.626 : The Holy Newborn 17 Pages 2015-05-14 08:42:00
ch.625 : Living Jaguar 18 Pages 2015-05-07 07:22:00
ch.624 : The Fang 18 Pages 2015-04-23 08:46:00
ch.623 : Against The Judgement 18 Pages 2015-04-09 11:07:00
ch.622 : The Agony 17 Pages 2015-04-02 11:07:00
ch.621 : The Dark Curtain 17 Pages 2015-03-26 08:52:00
ch.620 : Where Do You Stand 18 Pages 2015-03-19 14:13:00
ch.619 : The Betrayer 18 Pages 2015-03-12 08:33:00
ch.618 : The Dark Arm 18 Pages 2015-03-05 09:52:00
ch.617 : Return of the God 19 Pages 2015-02-26 10:10:00
ch.616 : Mimihagi-sama... 18 Pages 2015-02-19 10:54:00
ch.615 : ALL IS LOST 18 Pages 2015-02-12 11:57:00
ch.614 : KILL THE KING 18 Pages 2015-02-05 11:20:00
ch.613 : The Ordinary Peace 14 Pages 2015-01-29 11:13:00
ch.612 : Two Shadows Heading To The Battlefield!! 17 Pages 2015-01-22 15:24:00
ch.611 : Soul King 17 Pages 2014-12-26 10:56:00
ch.610 : Mausoleum of Skulls 16 Pages 2014-12-18 11:03:00
ch.609 : A 17 Pages 2014-12-11 12:03:00
ch.608 17 Pages 2014-12-04 10:15:00
ch.607 : The Master 18 Pages 2014-11-27 11:24:00
ch.606 : Divine Division 18 Pages 2014-11-19 11:52:00
ch.605 : Don't Call My Name 18 Pages 2014-11-13 10:14:00
ch.604 : Revitalize 18 Pages 2014-11-06 14:37:00
ch.603 : What The Hell 18 Pages 2014-10-29 10:50:00
ch.602 : Bane Licking Good 18 Pages 2014-10-23 11:46:00
ch.601 : Verge On Vermillion 19 Pages 2014-10-16 11:37:00
ch.600 : Snipe 18 Pages 2014-10-08 12:26:00
ch.599 : To Early To Win, To Late To Know 17 Pages 2014-10-02 10:10:00
ch.598 : The Shooting Star Project 18 Pages 2014-09-25 09:47:00
ch.597 : Winded By The Shadow 19 Pages 2014-09-18 11:55:00
ch.596 : Rubb-Dolls III 18 Pages 2014-09-10 10:58:00
ch.595 : Rub-Dolls II 18 Pages 2014-09-04 11:15:00
ch.594 : Rub-Dolls 19 Pages 2014-08-28 14:22:00
ch.593 : Marching Out The Zombies 18 Pages 2014-08-20 06:03:00
ch.592 : Marching Out The Zombies 3 19 Pages 2014-08-09 10:37:00
ch.591 : Marching Out The Zombies 21 Pages 2014-08-09 10:36:00
ch.590 : Marching Out the ZOMBIES 18 Pages 2014-08-09 10:36:00
ch.589 : The Old and New Trust 20 Pages 2014-07-15 10:15:00
ch.588 : The Headless Star 7 20 Pages 2014-07-09 09:15:00
ch.587 : The Headless Star 6 18 Pages 2014-07-02 07:44:00
ch.586 : The Headless Star 5 19 Pages 2014-06-25 07:41:00
ch.585 : The Headless Star 4 19 Pages 2014-06-18 07:04:00
ch.584 : The Headless Star 3 20 Pages 2014-06-11 06:06:00
ch.583 : The Headless Star 2 19 Pages 2014-06-04 06:18:00
ch.582 : The Headless Star 20 Pages 2014-05-28 06:19:00
ch.581 : The Hero 2 20 Pages 2014-05-21 09:13:00
ch.580 : THE LIGHT 20 Pages 2014-05-14 08:40:00
ch.579 : THE UNDEAD 6 20 Pages 2014-05-07 08:36:00
ch.578 : THE UNDEAD 5 19 Pages 2014-04-23 07:16:00
ch.577 : Sword 18 Pages 2014-04-16 06:28:00
ch.576 : The Killers High 2 19 Pages 2014-04-09 09:59:00
ch.575 : The Killers High 20 Pages 2014-04-02 07:50:00
ch.574 : DEATH IN VISION 20 Pages 2014-03-26 00:00:00
ch.573 : I Am The Edge 18 Pages 2014-03-19 00:00:00
ch.572 : The Blaster 22 Pages 2014-03-12 00:00:00
ch.571 : Devilish Perspective 21 Pages 2014-03-05 00:00:00
ch.570 : Closer Closer 21 Pages 2014-02-26 00:00:00
ch.569 : The White Haze 20 Pages 2014-02-19 00:00:00
ch.568 : Hear. Fear. Here 2 20 Pages 2014-02-12 00:00:00
ch.567 : Dance With Snowwhite 22 Pages 2014-02-05 00:00:00
ch.566 : What is Your Fear? 20 Pages 2014-01-29 00:00:00
ch.565 : God Like You 21 Pages 2014-01-22 00:00:00
ch.564 : Red Bristled Kings 21 Pages 2014-01-15 00:00:00
ch.563 : Super Star Never Die 19 Pages 2013-12-25 00:00:00
ch.562 : The Villain II 21 Pages 2013-12-17 00:00:00
ch.561 : The Villain 21 Pages 2013-12-11 00:00:00
ch.560 : Rages at Ringside 21 Pages 2013-12-04 00:00:00
ch.559 : The Night Right 22 Pages 2013-11-27 00:00:00
ch.558 : The heart of the wolf 24 Pages 2013-11-20 00:00:00
ch.557 : I already threw away my life 20 Pages 2013-11-13 00:00:00
ch.556 : The Wolfsbane 22 Pages 2013-11-06 00:00:00
ch.555 : The Hero 20 Pages 2013-10-29 00:00:00
ch.554 : Desperate Lights 21 Pages 2013-10-23 00:00:00
ch.553 : Frozen Cross 22 Pages 2013-10-16 00:00:00
ch.552 : The Fundamental Virulence. 22 Pages 2013-10-08 00:00:00
ch.551 : The Burnt Offerings 22 Pages 2013-10-02 00:00:00
ch.550 : Blazing Bullets 22 Pages 2013-09-25 00:00:00
ch.549 : The StormBringer 22 Pages 2013-09-17 00:00:00
ch.548 : The Thin Ice 22 Pages 2013-09-10 00:00:00
ch.547 : Peace from Shadows 22 Pages 2013-09-04 00:00:00
ch.546 : The Last 9 Days 20 Pages 2013-07-17 00:00:00
ch.545 : Blue Stripes 22 Pages 2013-07-09 00:00:00
ch.544 : Walking With Watchers 22 Pages 2013-07-03 00:00:00
ch.543 : Letters 20 Pages 2013-06-26 00:00:00
ch.542 : The Blade is Me 20 Pages 2013-06-19 00:00:00
ch.541 : The Blade and Me 2 22 Pages 2013-06-12 00:00:00
ch.540 : The Sword Five 22 Pages 2013-06-05 00:00:00
ch.539 : Prob-less, Progress 22 Pages 2013-05-29 00:00:00
ch.538 : Standing On The Edge 20 Pages 2013-05-22 00:00:00
ch.537 : Everything But The Rain Op.10 21 Pages 2013-05-15 00:00:00
ch.536 : Everything But The Rain Op.9 22 Pages 2013-05-08 00:00:00
ch.535 : Everything But The Rain Op.8 22 Pages 2013-04-23 00:00:00
ch.534 : Everything But The Rain Op.7 23 Pages 2013-04-17 00:00:00
ch.533 : Everything But The Rain Op.6 22 Pages 2013-04-10 00:00:00
ch.532 : Everything But The Rain Op.5 22 Pages 2013-04-03 00:00:00
ch.531 : Everything But The Rain Op.4 22 Pages 2013-03-27 00:00:00
ch.530 : Everything But The Rain Op.3 22 Pages 2013-03-13 00:00:00
ch.529 : Everything But The Rain Op.2 22 Pages 2013-03-06 00:00:00
ch.528 : Everything But The Rain 20 Pages 2013-02-27 00:00:00
ch.527 : Eliminate From Heaven 23 Pages 2013-02-20 00:00:00
ch.526 : The Battle 22 Pages 2013-02-13 00:00:00
ch.525 : Edges 21 Pages 2013-01-30 00:00:00
ch.524 : The Drop 22 Pages 2013-01-23 00:00:00
ch.523 : Words of Origin 23 Pages 2013-01-16 00:00:00
ch.522 : Love It 22 Pages 2012-12-27 00:00:00
ch.521 : A Piggy Party 21 Pages 2012-12-18 00:00:00
ch.520 : Killers Not Dead 22 Pages 2012-12-12 00:00:00
ch.519 : Hot Hot Heat 21 Pages 2012-12-05 00:00:00
ch.518 : The Shooting Star Project (ZERO MIX) 21 Pages 2012-11-28 00:00:00
ch.517 : The Stairway to Heaven 23 Pages 2012-11-20 00:00:00
ch.516 : The Squad Zero 20 Pages 2012-11-14 00:00:00
ch.515 : Relics 23 Pages 2012-11-07 00:00:00
ch.514 : Born In The Darkness 22 Pages 2012-10-30 00:00:00
ch.513 : The Dark Moon Stroke 22 Pages 2012-10-24 00:00:00
ch.512 : Everything but the rain 21 Pages 2012-10-17 00:00:00
ch.511 : Die Standing 21 Pages 2012-10-10 00:00:00
ch.510 : The Extinction 20 Pages 2012-10-02 00:00:00
ch.509 : Tenchi Kaijin 20 Pages 2012-09-26 00:00:00
ch.508 : Like a Raging Fire 20 Pages 2012-09-19 00:00:00
ch.507 : The Fire 3 23 Pages 2012-09-11 00:00:00
ch.506 : The Fire 2 21 Pages 2012-09-05 00:00:00
ch.505 : The Fire 23 Pages 2012-08-29 00:00:00
ch.504 : Before The Shadows 22 Pages 2012-08-22 00:00:00
ch.503 : Wrath as a Lightning 17 Pages 2012-08-12 00:00:00
ch.502 : Falling Soul 18 Pages 2012-07-25 00:00:00
ch.501 : Hear Fear Here 18 Pages 2012-07-18 00:00:00
ch.500 : Rescuer in the Deep Dark 18 Pages 2012-07-10 00:00:00
ch.499 : Rescuer In The Dark 18 Pages 2012-07-04 00:00:00
ch.498 : The Black Rescuer 18 Pages 2012-06-27 00:00:00
ch.497 : Kill the Shadow2 18 Pages 2012-06-20 00:00:00
ch.496 : Kill The Shadow 18 Pages 2012-06-13 00:00:00
ch.495 : Bleeding Guitar Blues 19 Pages 2012-06-06 00:00:00
ch.494 : The closing chapter part 1 20 Pages 2012-05-30 00:00:00
ch.493 : Light of Happiness 18 Pages 2012-05-23 00:00:00
ch.492 : Balancer's Justice 18 Pages 2012-05-16 00:00:00
ch.491 : Toden Engel 18 Pages 2012-05-09 00:00:00
ch.490 : March Of The StarCross 2 17 Pages 2012-04-28 00:00:00
ch.489 : March of the StarCross 18 Pages 2012-04-18 00:00:00
ch.488 : Bond Behind Blast 18 Pages 2012-04-11 00:00:00
ch.487 : Breathe But Blind 20 Pages 2012-04-04 00:00:00
ch.486 : The Crimson Cremation 18 Pages 2012-03-28 00:00:00
ch.485 : Foundation Stones 18 Pages 2012-03-21 00:00:00
ch.484 : The Buckbeard 17 Pages 2012-03-07 00:00:00
ch.483 : KriegsErklarung 21 Pages 2012-02-29 00:00:00
ch.482 : Bad Recognition 18 Pages 2012-02-22 00:00:00
ch.481 : The Tearing 17 Pages 2012-02-15 00:00:00
ch.480 : Final Arc - The Thousand Year Blood War 25 Pages 2012-02-08 00:00:00
ch.479 : Goodbye To Our Xcution!! 20 Pages 2012-01-11 00:00:00
ch.478 : The Lost 3 22 Pages 2011-12-26 00:00:00
ch.477 : The Lost 2 19 Pages 2011-12-14 00:00:00
ch.476 : The Lost 20 Pages 2011-12-07 00:00:00
ch.475 : Shades Of The Bond 18 Pages 2011-11-30 00:00:00
ch.474 : Believe 22 Pages 2011-11-23 00:00:00
ch.473 : Enemies in the Dark 22 Pages 2011-11-16 00:00:00
ch.472 : Razoredge Requiem 22 Pages 2011-11-09 00:00:00
ch.471 : Pray for Predators 2 21 Pages 2011-11-02 00:00:00
ch.470 : Pray For Predators 20 Pages 2011-10-27 00:00:00
ch.469 : Rag Lag Rumble 21 Pages 2011-10-19 00:00:00
ch.468 : Raid As a Blade 20 Pages 2011-10-12 00:00:00
ch.467 : Luck Men 20 Pages 2011-10-04 00:00:00
ch.466 : Screaming Invader 20 Pages 2011-09-28 00:00:00
ch.465 : Bad Blood Exhaust 23 Pages 2011-09-21 00:00:00
ch.464 : Quiet Chamber, Noisy Heart 20 Pages 2011-09-13 00:00:00
ch.463 : Extreme Divider 18 Pages 2011-09-07 00:00:00
ch.462 : Why Me Sad 19 Pages 2011-08-31 00:00:00
ch.461 : Come Around Our Turn 19 Pages 2011-08-24 00:00:00
ch.460 : Deathberry Returns 2 19 Pages 2011-08-17 00:00:00
ch.459 : Death & Strawberry 2 22 Pages 2011-08-03 00:00:00
ch.458 : End of All Bonds 21 Pages 2011-07-27 00:00:00
ch.457 : End of Bond 3 23 Pages 2011-07-20 00:00:00
ch.456 : End of The Bond 2 20 Pages 2011-07-12 00:00:00
ch.455 : End of The Bond 1 21 Pages 2011-07-06 00:00:00
ch.454 : Two People Under The Moonlight 21 Pages 2011-06-29 00:00:00
ch.453 : Mute Your Breathe Friendship 21 Pages 2011-06-22 00:00:00
ch.452 : Erosion/Implosion 19 Pages 2011-06-15 00:00:00
ch.451 : Welcome to Our EXECUTION 4 18 Pages 2011-06-09 00:00:00
ch.450 : Blind Solitude 21 Pages 2011-06-01 00:00:00
ch.449 : Not Be a Drug 21 Pages 2011-05-25 00:00:00
ch.448 : Loading To Lie 22 Pages 2011-05-19 00:00:00
ch.447 : Load 22 Pages 2011-05-11 00:00:00
ch.446 : The Dark Beat 2 22 Pages 2011-05-01 00:00:00
ch.445 : The Dark Beat 22 Pages 2011-04-20 00:00:00
ch.444 : The Rising 22 Pages 2011-04-13 00:00:00
ch.443 : Dirty Boots Dangers 22 Pages 2011-04-07 00:00:00
ch.442 : Battlefield Shallows, Otherfield Abyss 22 Pages 2011-03-31 00:00:00
ch.441 : Spotlight Brocken 22 Pages 2011-03-17 00:00:00
ch.440 : Mute Friendship 22 Pages 2011-03-09 00:00:00
ch.439 : Keen Marker 22 Pages 2011-03-02 00:00:00
ch.438 : Knuckle Down 22 Pages 2011-02-23 00:00:00
ch.437 22 Pages 2011-02-18 00:00:00
ch.436 : The Time Discipline 24 Pages 2011-02-10 00:00:00
ch.435 : Panic at the Dollhouse 22 Pages 2011-02-02 00:00:00
ch.434 : Berry In The Box 21 Pages 2011-01-27 00:00:00
ch.433 : The Six Fullbringers 24 Pages 2011-01-12 00:00:00
ch.432 : The Soul Pantheism 22 Pages 2010-12-26 00:00:00
ch.431 : Welcome to our Execution 3 21 Pages 2010-12-16 00:00:00
ch.430 : Welcome to our Execution 2 23 Pages 2010-12-09 00:00:00
ch.429 : Welcome to our Execution 22 Pages 2010-12-02 00:00:00
ch.428 : The Known 28 Pages 2010-11-25 00:00:00
ch.427 : A Delicious Dissonace 22 Pages 2010-11-17 00:00:00
ch.426 : The Starter 2 22 Pages 2010-11-11 00:00:00
ch.425 : A Day Without Melodies 22 Pages 2010-11-02 00:00:00
ch.424 : The Lost Agent 25 Pages 2010-10-27 00:00:00
ch.423 : Farewell Swords 22 Pages 2010-10-07 00:00:00
ch.422 : The Silent Victory 22 Pages 2010-09-30 00:00:00
ch.421 : Deicide 23 25 Pages 2010-09-23 00:00:00
ch.420 : Deicide 22 21 Pages 2010-09-16 00:00:00
ch.419 : Deicide 21 22 Pages 2010-09-09 00:00:00
ch.418 : Deicide 20 21 Pages 2010-09-02 00:00:00
ch.417 : Deicide 19 20 Pages 2010-08-26 00:00:00
ch.416 : Deicide 18 (The End) 21 Pages 2010-08-18 00:00:00
ch.415 : Deicide 17 21 Pages 2010-08-04 00:00:00
ch.414 : Deicide 16 24 Pages 2010-07-30 00:00:00
ch.413 : Deicide 15 22 Pages 2010-07-22 00:00:00
ch.412 : Deicide 14 22 Pages 2010-07-15 00:00:00
ch.411 : Deicide 13 24 Pages 2010-07-08 00:00:00
ch.410 : Deicide 12 24 Pages 2010-07-01 00:00:00
ch.409 : Deicide 11 25 Pages 2010-06-24 00:00:00
ch.408 : Deicide 10 22 Pages 2010-06-16 00:00:00
ch.407 : Deicide 9 23 Pages 2010-06-09 00:00:00
ch.406 : Deicide 8 [end of the Chrysalis Age] 22 Pages 2010-06-02 00:00:00
ch.405 : Deicide 7 22 Pages 2010-05-27 00:00:00
ch.404 : Deicide 6 22 Pages 2010-05-20 00:00:00
ch.403 : Deicide 5 21 Pages 2010-05-13 00:00:00
ch.402 : Deicide 4 23 Pages 2010-05-04 00:00:00
ch.401 : Deicide 3 21 Pages 2010-04-22 00:00:00
ch.400 : Deicide 2 22 Pages 2010-04-15 00:00:00
ch.399 : Deicide 23 Pages 2010-04-08 00:00:00
ch.398 : Back From Blind 21 Pages 2010-04-01 00:00:00
ch.397 : Edge Of The Silence 21 Pages 2010-03-25 00:00:00
ch.396 : The Bite 23 Pages 2010-03-18 00:00:00
ch.395 : The Burnout Inferno 3 22 Pages 2010-03-12 00:00:00
ch.394 : The Burnout Inferno 2 22 Pages 2010-03-05 00:00:00
ch.393 : The Burnout Inferno 21 Pages 2010-02-26 00:00:00
ch.392 : The Breaking Glaciers 24 Pages 2010-02-11 00:00:00
ch.391 : The Blazing Glaicers 22 Pages 2010-02-05 00:00:00
ch.390 : Beyond The Death Understanding 21 Pages 2010-01-29 00:00:00
ch.389 : Winged Eagles 2 22 Pages 2010-01-21 00:00:00
ch.388 : Eagle Without Wings 2 21 Pages 2010-01-15 00:00:00
ch.387 : Ignited 24 Pages 2009-12-26 00:00:00
ch.386 : The Bestial 25 Pages 2009-12-18 00:00:00
ch.385 : Vice It 23 Pages 2009-12-11 00:00:00
ch.384 : Cant Fear of Your Own Sword 22 Pages 2009-12-04 00:00:00
ch.383 : Too Early To Trust 20 Pages 2009-11-27 00:00:00
ch.382 : The United Front *Discordeque Mix* 21 Pages 2009-11-13 00:00:00
ch.381 : Words Just Don't Like You 22 Pages 2009-11-06 00:00:00
ch.380 : Devil, Devil, Devil, Devil 22 Pages 2009-10-29 00:00:00
ch.379 : Crushing...! 24 Pages 2009-10-22 00:00:00
ch.378 : Eyes of the Victor 22 Pages 2009-10-16 00:00:00
ch.377 : Shout at the Dark 22 Pages 2009-10-08 00:00:00
ch.376 : Execution, Extinction 2 21 Pages 2009-10-02 00:00:00
ch.375 : Excution, Extinction 25 Pages 2009-09-25 00:00:00
ch.374 : Grey Wolves, Red Blood, Black Clothes, White Bones 23 Pages 2009-09-17 00:00:00
ch.373 : Wolves Ain't Howl Alone 20 Pages 2009-09-11 00:00:00
ch.372 : The Metal Cudgel Flinger 21 Pages 2009-09-04 00:00:00
ch.371 : Kingdom of Hollowes 21 Pages 2009-08-28 00:00:00
ch.370 : Debating Life from God's Viewpoint 25 Pages 2009-08-21 00:00:00
ch.369 : Spit On Your Own God 22 Pages 2009-08-07 00:00:00
ch.368 : The Fearless Child 22 Pages 2009-08-01 00:00:00
ch.367 : Your Enemy is My Enemy 42 Pages 2009-07-30 00:00:00
ch.366 : The Revenger's High 20 Pages 2009-07-22 00:00:00
ch.365 : Whose Side Are We On 20 Pages 2009-07-10 00:00:00
ch.364 : Grinning Revengers 22 Pages 2009-07-10 00:00:00
ch.363 : Superchunky from Hell 23 Pages 2009-07-10 00:00:00
ch.362 : Howling Wolves 21 Pages 2009-07-10 00:00:00
ch.361 : I Hate Loneliness, But It Loves Me 21 Pages 2009-07-10 00:00:00
ch.360 : Shock of the Queen 21 Pages 2009-07-10 00:00:00
ch.359 : The Frozen Obelisk 21 Pages 2009-07-05 00:00:00
ch.358 : King of the Clouds 21 Pages 2009-07-05 00:00:00
ch.357 : The Colossus of Fear 21 Pages 2009-07-05 00:00:00
ch.356 : Tyrant of Skulls 24 Pages 2009-07-05 00:00:00
ch.355 : Azul-Blood Splash 21 Pages 2009-07-05 00:00:00
ch.354 : Heart 21 Pages 2009-07-05 00:00:00
ch.353 : The Ash 26 Pages 2009-07-05 00:00:00
ch.352 : The Lust 6 24 Pages 2009-07-05 00:00:00
ch.351 : The Lust 5 21 Pages 2009-07-05 00:00:00
ch.350 : The Lust 4 24 Pages 2009-07-05 00:00:00
ch.349 : The Lust 3 21 Pages 2009-07-05 00:00:00
ch.348 : The Lust 2 24 Pages 2009-07-05 00:00:00
ch.347 : The Lust 21 Pages 2009-07-05 00:00:00
ch.346 : The Wrath 21 Pages 2009-07-05 00:00:00
ch.345 : The Sloth 22 Pages 2009-07-05 00:00:00
ch.344 : The Pride 24 Pages 2009-07-05 00:00:00
ch.343 : The Gluttony 20 Pages 2009-07-05 00:00:00
ch.342 : The Greed 22 Pages 2009-07-05 00:00:00
ch.341 : The Envy 22 Pages 2009-07-05 00:00:00
ch.340 : The Antagonizer 22 Pages 2009-07-05 00:00:00
ch.339 : The Deathbringer Numbers 24 Pages 2009-07-05 00:00:00
ch.338 : Fall Into My Inferno 20 Pages 2009-07-05 00:00:00
ch.337 : Hall in Your Inferno 22 Pages 2009-07-05 00:00:00
ch.336 : El Verdugo 22 Pages 2009-07-05 00:00:00
ch.335 : Chimaera Chord 25 Pages 2009-07-05 00:00:00
ch.334 : Dregs of Hypnosis 22 Pages 2009-07-05 00:00:00
ch.333 : Ash and Salamander 22 Pages 2009-07-05 00:00:00
ch.332 : Fang and Sting 22 Pages 2009-07-05 00:00:00
ch.331 : Don't Believe the Hide 22 Pages 2009-07-05 00:00:00
ch.330 : Crossing Swords 22 Pages 2009-07-05 00:00:00
ch.329 : Raging Rampage 20 Pages 2009-07-05 00:00:00
ch.328 : The Knuckle Debate 24 Pages 2009-07-05 00:00:00
ch.327 : KnockDown Monsters 19 Pages 2009-07-05 00:00:00
ch.326 : Knockdown Monster 22 Pages 2009-07-05 00:00:00
ch.325 : Fear for the Fight 22 Pages 2009-07-05 00:00:00
ch.324 : The Claws 21 Pages 2009-07-05 00:00:00
ch.323 24 Pages 2009-07-05 00:00:00
ch.322 : Oath Under the Rose 23 Pages 2009-07-05 00:00:00
ch.321 : Black Briers and Brambles 22 Pages 2009-07-05 00:00:00
ch.320 : Beauty is So Solitary 23 Pages 2009-07-05 00:00:00
ch.319 : Ants and Dragons 22 Pages 2009-07-05 00:00:00
ch.318 : Five Tower Four Pillar 20 Pages 2009-07-05 00:00:00
ch.317 : Six Hearts Will Beat As One 24 Pages 2009-07-05 00:00:00
ch.316 : Swang The Edge Down 21 Pages 2009-07-05 00:00:00
ch.315 : March of the Death 19 Pages 2009-07-05 00:00:00
ch.314 : Night Side of Abduction 22 Pages 2009-07-05 00:00:00
ch.313 : To Close Your World 21 Pages 2009-07-05 00:00:00
ch.312 : Fervorous Ferocious 21 Pages 2009-07-05 00:00:00
ch.311 : The Undead 4 20 Pages 2009-07-05 00:00:00
ch.310 : Four Arms To Killing You 21 Pages 2009-07-05 00:00:00
ch.309 : Pray For The Mantis 22 Pages 2009-07-05 00:00:00
ch.308 : Satan from Orbit 21 Pages 2009-07-05 00:00:00
ch.307 : Bite It, Slash It 23 Pages 2009-07-05 00:00:00
ch.306 : Not Perfect Is Good 22 Pages 2009-07-05 00:00:00
ch.305 : The Rising Phoenix 21 Pages 2009-07-05 00:00:00
ch.304 : Battle of the Barbarians 19 Pages 2009-07-05 00:00:00
ch.303 : Dumdum Dummy Dumbstruck 20 Pages 2009-07-05 00:00:00
ch.302 : Pride on the Blade 21 Pages 2009-07-05 00:00:00
ch.301 : Shut Up and Die 24 Pages 2009-07-05 00:00:00
ch.300 : Curse Named Love 21 Pages 2009-07-05 00:00:00
ch.299 : The Verbal Warfare 20 Pages 2009-07-05 00:00:00
ch.298 : Intruder 3 21 Pages 2009-07-05 00:00:00
ch.297 : King of the Kill 21 Pages 2009-07-05 00:00:00
ch.296 : Change Again and Again 21 Pages 2009-07-05 00:00:00
ch.295 : The Last Mission 19 Pages 2009-07-05 00:00:00
ch.294 : If You Call Me Beast, Kill You LIke Tempest 21 Pages 2009-07-05 00:00:00
ch.293 : Urge for Unite 22 Pages 2009-07-05 00:00:00
ch.292 : Rupture My Replica 21 Pages 2009-07-05 00:00:00
ch.291 : Thank You for Defend Me 24 Pages 2009-07-05 00:00:00
ch.290 : The Broken Mask 20 Pages 2009-07-05 00:00:00
ch.289 : The Scar Mask 21 Pages 2009-07-05 00:00:00
ch.288 : The Bad Joke 23 Pages 2009-07-05 00:00:00
ch.287 : Don't Forgot Till You Die 20 Pages 2009-07-05 00:00:00
ch.286 : Tooth and Nail 20 Pages 2009-07-05 00:00:00
ch.285 : Eating Meat, Alone 22 Pages 2009-07-05 00:00:00
ch.284 : Historia de Pantera y su Sombras 22 Pages 2009-07-05 00:00:00
ch.283 : You Don't Hurt Anymore 20 Pages 2009-07-05 00:00:00
ch.282 : The Primal Fear 21 Pages 2009-07-05 00:00:00
ch.281 : The Vulgarian Noise 23 Pages 2009-07-05 00:00:00
ch.280 : Jugulators 2 20 Pages 2009-07-05 00:00:00
ch.279 : Jugulators 22 Pages 2009-07-05 00:00:00
ch.278 : Heal For The Crash 26 Pages 2009-07-05 00:00:00
ch.277 : Corrosion Of Conformity 20 Pages 2009-07-05 00:00:00
ch.276 : Blookin' Beast 19 Pages 2009-07-05 00:00:00
ch.275 : United Front 2 Red And White 20 Pages 2009-07-05 00:00:00
ch.274 : The Monster 20 Pages 2009-07-05 00:00:00
ch.273 : Dog Eat Dog 20 Pages 2009-07-05 00:00:00
ch.272 : Don't Kill My Voluptue 20 Pages 2009-07-05 00:00:00
ch.271 : If You Rise From The Ashes 25 Pages 2009-07-05 00:00:00
ch.270 : Warning 29 Pages 2009-07-05 00:00:00
ch.269 : The End Is Near 27 Pages 2009-07-05 00:00:00
ch.268 : Death Is Not Goodbye 20 Pages 2009-07-05 00:00:00
ch.267 : Legions Of The Reglets 22 Pages 2009-07-05 00:00:00
ch.266 : Hide Away From The Sun 25 Pages 2009-07-05 00:00:00
ch.265 : Bang The Bore 24 Pages 2009-07-05 00:00:00
ch.264 : Dont Say That Name Again 22 Pages 2009-07-05 00:00:00
ch.263 : Unexpected 20 Pages 2009-07-05 00:00:00
ch.262 : Unblendable 20 Pages 2009-07-05 00:00:00
ch.261 : Left Arm Of The Devil 25 Pages 2009-07-05 00:00:00
ch.260 : Right Arm Of The Giant2 19 Pages 2009-07-05 00:00:00
ch.259 : Flicker Flames 20 Pages 2009-07-05 00:00:00
ch.258 : Seele Schneider 23 Pages 2009-07-05 00:00:00
ch.257 : The Birdhunter 20 Pages 2009-07-05 00:00:00
ch.256 : Infinite Slick 20 Pages 2009-07-05 00:00:00
ch.255 : Don't Breathe In The Bush 19 Pages 2009-07-05 00:00:00
ch.254 : Leave The Chocolate Here 20 Pages 2009-07-05 00:00:00
ch.253 : Don't Call Me Nino 20 Pages 2009-07-05 00:00:00
ch.252 : Rebut To The Baron's Lecture 28 Pages 2009-07-05 00:00:00
ch.251 : Baron's Lecture 1st Period 21 Pages 2009-07-05 00:00:00
ch.250 : Five Ways To Three Figures 22 Pages 2009-07-05 00:00:00
ch.249 : Back To The Innocent 20 Pages 2009-07-05 00:00:00
ch.248 : Come Back Alive To This Place 19 Pages 2009-07-05 00:00:00
ch.247 : United On The Desert 22 Pages 2009-07-05 00:00:00
ch.246 : The Great Desert Bros 24 Pages 2009-07-05 00:00:00
ch.245 : The Way With Out Enemies 19 Pages 2009-07-05 00:00:00
ch.244 : Born From The Fear 18 Pages 2009-07-05 00:00:00
ch.243 : The Knuckle And The Arrow 24 Pages 2009-07-05 00:00:00
ch.242 : Two Men Burning 20 Pages 2009-07-05 00:00:00
ch.241 : Silverflame 24 Pages 2009-07-05 00:00:00
ch.240 : Regeneration 20 Pages 2009-07-05 00:00:00
ch.239 : Winged Eagles 22 Pages 2009-07-05 00:00:00
ch.238 : Eagle Without Wings 19 Pages 2009-07-05 00:00:00
ch.237 : Good Bye, Halcyon Days 20 Pages 2009-07-05 00:00:00
ch.236 : The Sun Already Gone Down 20 Pages 2009-07-05 00:00:00
ch.235 : Frozen Clutch 20 Pages 2009-07-05 00:00:00
ch.234 : Not Negotiation 25 Pages 2009-07-05 00:00:00
ch.233 : Ei Violador 23 Pages 2009-07-05 00:00:00
ch.232 : The Mascaron Drive 2 20 Pages 2009-07-05 00:00:00
ch.231 : The Mascaron Drive 19 Pages 2009-07-05 00:00:00
ch.230 : White Invasion 19 Pages 2009-07-05 00:00:00
ch.229 : Howling Tempest 21 Pages 2009-07-05 00:00:00
ch.228 : Don't Look Back 24 Pages 2009-07-05 00:00:00
ch.227 : The Swordless Soldier 20 Pages 2009-07-05 00:00:00
ch.226 : The Right-Of The Heart 18 Pages 2009-07-05 00:00:00
ch.225 : Slip Into My Barrier 24 Pages 2009-07-05 00:00:00
ch.224 : Imitated Gaiety 25 Pages 2009-07-05 00:00:00
ch.223 : The Scarlet Creation 22 Pages 2009-07-05 00:00:00
ch.222 : No Shaking Throne 20 Pages 2009-07-05 00:00:00
ch.221 : Let Eat The World's End 25 Pages 2009-07-05 00:00:00
ch.220 : King And His Horse 20 Pages 2009-07-05 00:00:00
ch.219 : Black And White 3 18 Pages 2009-07-05 00:00:00
ch.218 : Dark Side Of Universe 3 23 Pages 2009-07-05 00:00:00
ch.217 : Hole In My Heart 19 Pages 2009-07-05 00:00:00
ch.216 : The Suppression Of Darkness 18 Pages 2009-07-05 00:00:00
ch.215 : Tug Your God Out 25 Pages 2009-07-05 00:00:00
ch.214 : Immanent God Blues 25 Pages 2009-07-05 00:00:00
ch.213 : Trifle 20 Pages 2009-07-05 00:00:00
ch.212 : You Dont-Hear My Name Anymore 21 Pages 2009-07-05 00:00:00
ch.211 : Stroke Of Sanity 19 Pages 2009-07-05 00:00:00
ch.210 : Turn on True Power 18 Pages 2009-07-05 00:00:00
ch.209 : Lift The Limit 16 Pages 2009-07-05 00:00:00
ch.208 : The Scissors 20 Pages 2009-07-05 00:00:00
ch.207 : Mode Genocide 20 Pages 2009-07-05 00:00:00
ch.206 : Mala Suerte 5 Lucky 24 Pages 2009-07-05 00:00:00
ch.205 : Mala Suerte 4 20 Pages 2009-07-05 00:00:00
ch.204 : Mala Suerte 3 23 Pages 2009-07-05 00:00:00
ch.203 : Mala Suerte 2 23 Pages 2009-07-05 00:00:00
ch.202 : Mala Suerte 20 Pages 2009-07-05 00:00:00
ch.201 : Wind And Snowbound 28 Pages 2009-07-05 00:00:00
ch.200 : Night Of Seldgehammer 19 Pages 2009-07-05 00:00:00
ch.199 : Ugly 20 Pages 2009-07-05 00:00:00
ch.198 : The Icecold Discord 25 Pages 2009-07-05 00:00:00
ch.197 : Approaching Danger 20 Pages 2009-07-05 00:00:00
ch.196 : Punch Down The Stone Circle 20 Pages 2009-07-05 00:00:00
ch.195 : Death And Strawberry Reprise 18 Pages 2009-07-05 00:00:00
ch.194 : Conquistadores 5 23 Pages 2009-07-05 00:00:00
ch.193 : Conquistadores 4 21 Pages 2009-07-05 00:00:00
ch.192 : Conquistadores 3 Hounded Priestess 20 Pages 2009-07-05 00:00:00
ch.191 : Conquistadores 2 20 Pages 2009-07-05 00:00:00
ch.190 : Conquistadores 20 Pages 2009-07-05 00:00:00
ch.189 : Resolve 20 Pages 2009-07-05 00:00:00
ch.188 : Crush The World Down 22 Pages 2009-07-05 00:00:00
ch.187 : The Cigar Blues Part Two 20 Pages 2009-07-05 00:00:00
ch.186 : Tell Your Children The Truth 22 Pages 2009-07-05 00:00:00
ch.185 : Be My Family Or Not 24 Pages 2009-07-05 00:00:00
ch.184 : Hush 23 Pages 2009-07-05 00:00:00
ch.183 : Eyes Of The Unknown 22 Pages 2009-07-05 00:00:00
ch.182 : Get Back From The Storm 21 Pages 2009-07-05 00:00:00
ch.181 : And The Rain Left Off 20 Pages 2009-07-05 00:00:00
ch.180 : Something In The Aftermath 22 Pages 2009-07-05 00:00:00
ch.179 : Confession In The Twilight 21 Pages 2009-07-05 00:00:00
ch.178 : No One Stand On The Sky 20 Pages 2009-07-05 00:00:00
ch.177 : End Of Hypnosis 9 Completely Encompass 20 Pages 2009-07-05 00:00:00
ch.176 : End Of Hypnosis 8 The Transfixion 29 Pages 2009-07-05 00:00:00
ch.175 : End Of Hypnosis 7 Truth Under My Strings 22 Pages 2009-07-05 00:00:00
ch.174 : End Of Hypnosis 6 The United Front 20 Pages 2009-07-05 00:00:00
ch.173 : End Of Hypnosis 5 Standing To Defend You 20 Pages 2009-07-05 00:00:00
ch.172 : End Of Hypnosis 4 Prisoners In Paradise 20 Pages 2009-07-05 00:00:00
ch.171 : End Of Hypnosis 3 The Blue Fog 20 Pages 2009-07-05 00:00:00
ch.170 : End Of Hypnosis 2 The Galvanizer 22 Pages 2009-07-05 00:00:00
ch.169 : End Of Hypnosis 22 Pages 2009-07-05 00:00:00
ch.168 : Behind Me, Behind You 20 Pages 2009-07-05 00:00:00
ch.167 : The Burial Chamber 20 Pages 2009-07-05 00:00:00
ch.166 : Black And White 2 20 Pages 2009-07-05 00:00:00
ch.165 : Dark Side Of The Unviverse 2 23 Pages 2009-07-05 00:00:00
ch.164 : That Who Change The World 19 Pages 2009-07-05 00:00:00
ch.163 : The Speed Phantom 2 20 Pages 2009-07-05 00:00:00
ch.162 : Black Moon Rising 18 Pages 2009-07-05 00:00:00
ch.161 : Scratch The Sky 21 Pages 2009-07-05 00:00:00
ch.160 : The Battle On The Gulilotine Hill 19 Pages 2009-07-05 00:00:00
ch.159 : Long Way To Say Goodbye 20 Pages 2009-07-05 00:00:00
ch.158 : Sky Leopardess 22 Pages 2009-07-05 00:00:00
ch.157 : Cat And Hornet 21 Pages 2009-07-05 00:00:00
ch.156 : Welcome To Purgatory 17 Pages 2009-07-05 00:00:00
ch.155 : Redoundable Deeds, RedoundableBabies 23 Pages 2009-07-05 00:00:00
ch.154 : The God Of Flash 20 Pages 2009-07-05 00:00:00
ch.153 : Empty Dialogue 20 Pages 2009-07-05 00:00:00
ch.152 : The Speed Phantom 20 Pages 2009-07-05 00:00:00
ch.151 : Deathberry Returns 23 Pages 2009-07-05 00:00:00
ch.150 : Countdown To The End 0 20 Pages 2009-07-05 00:00:00
ch.149 : Countdown To The End 1 20 Pages 2009-07-05 00:00:00
ch.148 : Countdown To The End 2 19 Pages 2009-07-05 00:00:00
ch.147 : Countdown To The End 3 20 Pages 2009-07-05 00:00:00
ch.146 : Demon Loves The Dark 18 Pages 2009-07-05 00:00:00
ch.145 : Shaken 22 Pages 2009-07-05 00:00:00
ch.144 : Rosa Rubicundior, Lillior Candidor 20 Pages 2009-07-05 00:00:00
ch.143 : Parthian Shift 21 Pages 2009-07-05 00:00:00
ch.142 : Tsuki Wo Tora Umono Ha Tsugu 18 Pages 2009-07-05 00:00:00
ch.141 : Kneel To The Baboon King 19 Pages 2009-07-05 00:00:00
ch.140 : Bite The Moon 20 Pages 2009-07-05 00:00:00
ch.139 : Drowsy, Bloody, Crazy 20 Pages 2009-07-05 00:00:00
ch.138 : Individual Thoughts 20 Pages 2009-07-05 00:00:00
ch.137 : Surrounding Clutch 20 Pages 2009-07-05 00:00:00
ch.136 : Memories In The Rain2 Op. 4 Night Of Wijinruit 20 Pages 2009-07-05 00:00:00
ch.135 : Memories In The Rain2 Op. 3 Stepping Into Darkness 19 Pages 2009-07-05 00:00:00
ch.134 : Memories In The Rain2 Op. 2 Longing For Sanctuary 20 Pages 2009-07-05 00:00:00
ch.133 : Memories In The Rain2 The Nocturne 22 Pages 2009-07-05 00:00:00
ch.132 : Creeping Limit 22 Pages 2009-07-05 00:00:00
ch.131 : The True Will 20 Pages 2009-07-05 00:00:00
ch.130 20 Pages 2009-07-05 00:00:00
ch.129 : The Song Of Training For The Ultimate Technique Op. 1 20 Pages 2009-07-05 00:00:00
ch.128 : The Great Joint Struggle Union 19 Pages 2009-07-05 00:00:00
ch.127 : Beginning Of The Death Of Tomorrow 19 Pages 2009-07-05 00:00:00
ch.126 : The Last Of A Void War 19 Pages 2009-07-05 00:00:00
ch.125 : Insanity And Genius 19 Pages 2009-07-05 00:00:00
ch.124 : Crying Little People 20 Pages 2009-07-05 00:00:00
ch.123 : Pledge My Pride To 19 Pages 2009-07-05 00:00:00
ch.122 : Don't Lose Your Grip On 19 Pages 2009-07-05 00:00:00
ch.121 : In Sane We Trust 21 Pages 2009-07-05 00:00:00
ch.120 : Shake Hands With Grenades 22 Pages 2009-07-05 00:00:00
ch.119 21 Pages 2009-07-05 00:00:00
ch.118 : The Supernal Tag 19 Pages 2009-07-05 00:00:00
ch.117 : Remnant 2 Deny The Shadow 22 Pages 2009-07-05 00:00:00
ch.116 50 Pages 2009-07-05 00:00:00
ch.115 : Remnant 20 Pages 2009-07-05 00:00:00
ch.114 : Everything About The World Soon To Collapse 20 Pages 2009-07-05 00:00:00
ch.113 : The Undead 3 Closing Frantica 19 Pages 2009-07-05 00:00:00
ch.112 : The Undead 2 Rise And Craze 20 Pages 2009-07-05 00:00:00
ch.111 : Black And White 22 Pages 2009-07-05 00:00:00
ch.110 : Dark Side Of Universe 21 Pages 2009-07-05 00:00:00
ch.109 : Like A Tiger Treading On The Flowers 20 Pages 2009-07-05 00:00:00
ch.108 : Time For Scare 29 Pages 2009-07-05 00:00:00
ch.107 : Heat In Trust 20 Pages 2009-07-05 00:00:00
ch.106 : Cause For Confront 21 Pages 2009-07-05 00:00:00
ch.105 : Spring, Spring, Meets The Tiger 19 Pages 2009-07-05 00:00:00
ch.104 : The Undead 20 Pages 2009-07-05 00:00:00
ch.103 : Dominion 18 Pages 2009-07-05 00:00:00
ch.102 : Nobody Beat 21 Pages 2009-07-05 00:00:00
ch.101 : Split Under The Red Stalk 20 Pages 2009-07-05 00:00:00
ch.100 : Like The Flower On The Rock Wall 20 Pages 2009-07-05 00:00:00
ch.99 : Dead Black War Cloud 22 Pages 2009-07-05 00:00:00
ch.98 : The Star And The Tramp 19 Pages 2009-07-05 00:00:00
ch.97 : Talk About Your Fear 20 Pages 2009-07-05 00:00:00
ch.96 : Bloodred Conflict 20 Pages 2009-07-05 00:00:00
ch.95 : Crush 20 Pages 2009-07-05 00:00:00
ch.94 : Gaol Named Remorse 18 Pages 2009-07-05 00:00:00
ch.93 : Steer For-The Star 19 Pages 2009-07-05 00:00:00
ch.92 : Masterly And Farewell Reprise 20 Pages 2009-07-05 00:00:00
ch.91 : King Of Freischutz 24 Pages 2009-07-05 00:00:00
ch.90 : See You Under A Firework 20 Pages 2009-07-05 00:00:00
ch.89 : Masterly And Farewell 25 Pages 2009-07-05 00:00:00
ch.88 : So Unlucky We Are 20 Pages 2009-07-05 00:00:00
ch.87 : Dancing With Spears 25 Pages 2009-07-05 00:00:00
ch.86 : Making-Good Relations, Ok 20 Pages 2009-07-05 00:00:00
ch.85 : Intruderz 2 Breakthrough The Roof Mix 21 Pages 2009-07-05 00:00:00
ch.84 : The Shooting Star Project 2 Tattoo On The Sky 20 Pages 2009-07-05 00:00:00
ch.83 : Come With Me 20 Pages 2009-07-05 00:00:00
ch.82 : Conflictable Composition 19 Pages 2009-07-05 00:00:00
ch.81 : Twelve Tone Rendezvous 19 Pages 2009-07-05 00:00:00
ch.80 : The Shooting Star Project 25 Pages 2009-07-05 00:00:00
ch.79 : Fourteen Days For Conspiracy 23 Pages 2009-07-05 00:00:00
ch.78 : Meet It At Basement 20 Pages 2009-07-05 00:00:00
ch.77 : My Nmae Is Ganju 20 Pages 2009-07-05 00:00:00
ch.76 : Boarrider Comin' 20 Pages 2009-07-05 00:00:00
ch.75 : Rain Of Blood 19 Pages 2009-07-05 00:00:00
ch.74 : Armlost, Armlost 20 Pages 2009-07-05 00:00:00
ch.73 : Drizzly Axes 17 Pages 2009-07-05 00:00:00
ch.72 : The Superchunk 21 Pages 2009-07-05 00:00:00
ch.71 : Intruderz 25 Pages 2009-07-05 00:00:00
ch.70 : Where Hollows Fear to Tread 17 Pages 2009-07-05 00:00:00
ch.69 : 2500 Gathering 20 Pages 2009-07-05 00:00:00
ch.68 : Last-Summer Vacation 21 Pages 2009-07-05 00:00:00
ch.67 : End 0f Lessons 20 Pages 2009-07-05 00:00:00
ch.66 : The Blade And Me 21 Pages 2009-07-05 00:00:00
ch.65 : Collisions 20 Pages 2009-07-05 00:00:00
ch.64 : Back In Black 22 Pages 2009-07-05 00:00:00
ch.63 : Lesson 2 3 Innercircle Breakdown 19 Pages 2009-07-05 00:00:00
ch.62 : Lesson 2 2 Bad Endin' In The Shaft 26 Pages 2009-07-05 00:00:00
ch.61 : Lesson 2 Shattered Shaft 18 Pages 2009-07-05 00:00:00
ch.60 : Lesson 1 2 Down 20 Pages 2009-07-05 00:00:00
ch.59 : Lesson 1 One Strike + Jailed At Home 20 Pages 2009-07-05 00:00:00
ch.58 : Blank 22 Pages 2009-07-05 00:00:00
ch.57 : Unfinished July Rain 20 Pages 2009-07-05 00:00:00
ch.56 : Broken Coda 20 Pages 2009-07-05 00:00:00
ch.55 : Shut 20 Pages 2009-07-05 00:00:00
ch.54 : The Rookie That Can't Ask Its Name 20 Pages 2009-07-05 00:00:00
ch.53 : Nice To Meet You, I Wil Beat You 22 Pages 2009-07-05 00:00:00
ch.52 : Needless Emotions 20 Pages 2009-07-05 00:00:00
ch.51 : Death 3 23 Pages 2009-07-05 00:00:00
ch.50 : Quincy Archer Hates You Part 2 Blind But Bleed Mix 22 Pages 2009-07-05 00:00:00
ch.49 : Unchained 21 Pages 2009-07-05 00:00:00
ch.48 : Menos Grande 19 Pages 2009-07-05 00:00:00
ch.47 : Back To Back Tearing Sky 19 Pages 2009-07-05 00:00:00
ch.46 : Karneades Back To Back 20 Pages 2009-07-05 00:00:00
ch.45 : Point Of Purpose 19 Pages 2009-07-05 00:00:00
ch.44 : Awaken To The Threat 24 Pages 2009-07-05 00:00:00
ch.43 : Princess And Dragon Part 3 Six Flowers 20 Pages 2009-07-05 00:00:00
ch.42 : Princess And Dragon Part 2 The Majestic 20 Pages 2009-07-05 00:00:00
ch.41 : Princess And Dragon 19 Pages 2009-07-05 00:00:00
ch.40 : Grow 19 Pages 2009-07-05 00:00:00
ch.39 : Right Arm Of The Giant 20 Pages 2009-07-05 00:00:00
ch.38 : Bent 20 Pages 2009-07-05 00:00:00
ch.37 : Crossing The Rubicon 20 Pages 2009-07-05 00:00:00
ch.36 : For The Sake Of Revenge, Lead Us To Death 20 Pages 2009-07-05 00:00:00
ch.35 : Can You Be My Enemy 22 Pages 2009-07-05 00:00:00
ch.34 : Quincy Archer Hates You 23 Pages 2009-07-05 00:00:00
ch.33 : Rockin' Future 7 20 Pages 2009-07-05 00:00:00
ch.32 : Hero Is Always With Me 22 Pages 2009-07-05 00:00:00
ch.31 : Heroes Can Save You 19 Pages 2009-07-05 00:00:00
ch.30 : Second Contact It Was Outside The Scope Of Our Understanding 19 Pages 2009-07-05 00:00:00
ch.29 : Stop That Stupid 19 Pages 2009-07-05 00:00:00
ch.28 : Symptom Of Synesthesia 20 Pages 2009-07-05 00:00:00
ch.27 : Spirits Ain't Always With Us 20 Pages 2009-07-05 00:00:00
ch.26 : Paradise Is Nowhere 19 Pages 2009-07-05 00:00:00
ch.25 : 6 17 Op. 9 Fighting Boy 2 The Cigar Blues Mix 21 Pages 2009-07-05 00:00:00
ch.24 : 6 17 Op. 8 All One Way Sympathies 20 Pages 2009-07-05 00:00:00
ch.23 : 6 17 Op. 7 Sharp Intent Dull Blade 19 Pages 2009-07-05 00:00:00
ch.22 : 6 17 Op. 6 Battle On Graveyard 20 Pages 2009-07-05 00:00:00
ch.21 : 6 17 Op. 5 Fighting Boy 20 Pages 2009-07-05 00:00:00
ch.20 : 6 17 Op. 4 Face Again 23 Pages 2009-07-05 00:00:00
ch.19 : 6 17 Op. 3 Memories In The Rain 19 Pages 2009-07-05 00:00:00
ch.18 : 6 17 Op. 2 Can't Smile Don' Blame 18 Pages 2009-07-05 00:00:00
ch.17 : 6 17 20 Pages 2009-07-05 00:00:00
ch.16 : Wasted But Wanted 24 Pages 2009-07-05 00:00:00
ch.15 : Jumpin' Jack Jolted 20 Pages 2009-07-05 00:00:00
ch.14 : School Daze!! 20 Pages 2009-07-05 00:00:00
ch.13 : Bad Standard 18 Pages 2009-07-05 00:00:00
ch.12 : The Gate Of The End 19 Pages 2009-07-05 00:00:00
ch.11 : Back Leachbomb Or Mom 20 Pages 2009-07-05 00:00:00
ch.10 : Monster And A Transfer The Deathberry 20 Pages 2009-07-05 00:00:00
ch.9 : Monster And A Transfer Struck Down 20 Pages 2009-07-05 00:00:00
ch.8 : Chase Chad Around 22 Pages 2009-07-05 00:00:00
ch.7 : The Pink Cheeked Parakeet 24 Pages 2009-07-05 00:00:00
ch.6 : Microcrack 20 Pages 2009-07-05 00:00:00
ch.5 : Binda Blinda 20 Pages 2009-07-04 00:00:00
ch.4 : Why Do You Eat It 20 Pages 2009-07-04 00:00:00
ch.3 : Headhittin' 22 Pages 2009-07-04 00:00:00
ch.2 : Starter 24 Pages 2009-07-04 00:00:00
ch.1 : Death And Strawberry 57 Pages 2009-07-04 00:00:00

RELATIVE MANGA